<?xml version="1.0" encoding="UTF-8" standalone="no" ?>
<gpx xmlns="http://www.topografix.com/GPX/1/1" xmlns:xsi="http://www.w3.org/2001/XMLSchema-instance" xsi:schemaLocation="http://www.topografix.com/GPX/1/1 http://www.topografix.com/GPX/1/1/gpx.xsd" version="1.1" creator="VisuGPX - https://www.visugpx.com">
  <metadata>
    <name>Vendredi 27 mars 2026</name>
  </metadata>
  <trk>
    <name><![CDATA[Vendredi 27 mars 2026]]></name>
    <extensions>
      <line xmlns="http://www.topografix.com/GPX/gpx_style/0/2">
        <width>7</width>
      </line>
    </extensions>
    <trkseg>
      <trkpt lat="43.38651" lon="-1.66329">
        <ele>4</ele>
        <time>2026-03-06T17:28:32.000Z</time>
      </trkpt>
      <trkpt lat="43.38636" lon="-1.66325">
        <ele>3.9</ele>
        <time>2026-03-06T17:28:35.000Z</time>
      </trkpt>
      <trkpt lat="43.38617" lon="-1.66317">
        <ele>3.4</ele>
        <time>2026-03-06T17:28:38.000Z</time>
      </trkpt>
      <trkpt lat="43.386" lon="-1.66303">
        <ele>1</ele>
        <time>2026-03-06T17:28:42.000Z</time>
      </trkpt>
      <trkpt lat="43.3857" lon="-1.66267">
        <ele>2</ele>
        <time>2026-03-06T17:28:49.000Z</time>
      </trkpt>
      <trkpt lat="43.38503" lon="-1.66208">
        <ele>4</ele>
        <time>2026-03-06T17:29:03.000Z</time>
      </trkpt>
      <trkpt lat="43.38493" lon="-1.66191">
        <ele>5</ele>
        <time>2026-03-06T17:29:06.000Z</time>
      </trkpt>
      <trkpt lat="43.38487" lon="-1.66173">
        <ele>5</ele>
        <time>2026-03-06T17:29:08.000Z</time>
      </trkpt>
      <trkpt lat="43.38483" lon="-1.66174">
        <ele>5</ele>
        <time>2026-03-06T17:29:09.000Z</time>
      </trkpt>
      <trkpt lat="43.38478" lon="-1.66167">
        <ele>6</ele>
        <time>2026-03-06T17:29:10.000Z</time>
      </trkpt>
      <trkpt lat="43.38477" lon="-1.66161">
        <ele>5</ele>
        <time>2026-03-06T17:29:11.000Z</time>
      </trkpt>
      <trkpt lat="43.38479" lon="-1.66155">
        <ele>5</ele>
        <time>2026-03-06T17:29:12.000Z</time>
      </trkpt>
      <trkpt lat="43.38462" lon="-1.66121">
        <ele>5</ele>
        <time>2026-03-06T17:29:17.000Z</time>
      </trkpt>
      <trkpt lat="43.38445" lon="-1.66095">
        <ele>5</ele>
        <time>2026-03-06T17:29:22.000Z</time>
      </trkpt>
      <trkpt lat="43.38384" lon="-1.66012">
        <ele>5</ele>
        <time>2026-03-06T17:29:37.000Z</time>
      </trkpt>
      <trkpt lat="43.38384" lon="-1.66012">
        <ele>5</ele>
        <time>2026-03-06T17:29:37.000Z</time>
      </trkpt>
      <trkpt lat="43.38347" lon="-1.65961">
        <ele>6</ele>
        <time>2026-03-06T17:29:46.000Z</time>
      </trkpt>
      <trkpt lat="43.38335" lon="-1.65933">
        <ele>6</ele>
        <time>2026-03-06T17:29:51.000Z</time>
      </trkpt>
      <trkpt lat="43.38313" lon="-1.6591">
        <ele>5</ele>
        <time>2026-03-06T17:29:56.000Z</time>
      </trkpt>
      <trkpt lat="43.38305" lon="-1.65894">
        <ele>4</ele>
        <time>2026-03-06T17:29:58.000Z</time>
      </trkpt>
      <trkpt lat="43.38298" lon="-1.65877">
        <ele>4</ele>
        <time>2026-03-06T17:30:01.000Z</time>
      </trkpt>
      <trkpt lat="43.38233" lon="-1.65699">
        <ele>4</ele>
        <time>2026-03-06T17:30:26.000Z</time>
      </trkpt>
      <trkpt lat="43.38236" lon="-1.65679">
        <ele>4</ele>
        <time>2026-03-06T17:30:29.000Z</time>
      </trkpt>
      <trkpt lat="43.38269" lon="-1.65632">
        <ele>4</ele>
        <time>2026-03-06T17:30:37.000Z</time>
      </trkpt>
      <trkpt lat="43.38269" lon="-1.65632">
        <ele>4</ele>
        <time>2026-03-06T17:30:37.000Z</time>
      </trkpt>
      <trkpt lat="43.38356" lon="-1.65511">
        <ele>4</ele>
        <time>2026-03-06T17:31:00.000Z</time>
      </trkpt>
      <trkpt lat="43.38327" lon="-1.65471">
        <ele>4</ele>
        <time>2026-03-06T17:31:07.000Z</time>
      </trkpt>
      <trkpt lat="43.38324" lon="-1.65461">
        <ele>4</ele>
        <time>2026-03-06T17:31:08.000Z</time>
      </trkpt>
      <trkpt lat="43.38338" lon="-1.65441">
        <ele>5</ele>
        <time>2026-03-06T17:31:12.000Z</time>
      </trkpt>
      <trkpt lat="43.3837" lon="-1.65376">
        <ele>5</ele>
        <time>2026-03-06T17:31:22.000Z</time>
      </trkpt>
      <trkpt lat="43.3839" lon="-1.65332">
        <ele>6</ele>
        <time>2026-03-06T17:31:29.000Z</time>
      </trkpt>
      <trkpt lat="43.38395" lon="-1.65315">
        <ele>8</ele>
        <time>2026-03-06T17:31:31.000Z</time>
      </trkpt>
      <trkpt lat="43.38394" lon="-1.65295">
        <ele>10</ele>
        <time>2026-03-06T17:31:34.000Z</time>
      </trkpt>
      <trkpt lat="43.38384" lon="-1.65266">
        <ele>13</ele>
        <time>2026-03-06T17:31:38.000Z</time>
      </trkpt>
      <trkpt lat="43.38366" lon="-1.65246">
        <ele>13</ele>
        <time>2026-03-06T17:31:42.000Z</time>
      </trkpt>
      <trkpt lat="43.38344" lon="-1.65206">
        <ele>12</ele>
        <time>2026-03-06T17:31:48.000Z</time>
      </trkpt>
      <trkpt lat="43.3833" lon="-1.6517">
        <ele>12</ele>
        <time>2026-03-06T17:31:54.000Z</time>
      </trkpt>
      <trkpt lat="43.38258" lon="-1.64969">
        <ele>8</ele>
        <time>2026-03-06T17:32:23.000Z</time>
      </trkpt>
      <trkpt lat="43.3825" lon="-1.64928">
        <ele>8</ele>
        <time>2026-03-06T17:32:28.000Z</time>
      </trkpt>
      <trkpt lat="43.38253" lon="-1.64877">
        <ele>9</ele>
        <time>2026-03-06T17:32:35.000Z</time>
      </trkpt>
      <trkpt lat="43.38279" lon="-1.6461">
        <ele>7</ele>
        <time>2026-03-06T17:33:10.000Z</time>
      </trkpt>
      <trkpt lat="43.38278" lon="-1.64507">
        <ele>10</ele>
        <time>2026-03-06T17:33:23.000Z</time>
      </trkpt>
      <trkpt lat="43.38272" lon="-1.64424">
        <ele>8</ele>
        <time>2026-03-06T17:33:34.000Z</time>
      </trkpt>
      <trkpt lat="43.38264" lon="-1.64383">
        <ele>7</ele>
        <time>2026-03-06T17:33:39.000Z</time>
      </trkpt>
      <trkpt lat="43.3825" lon="-1.64341">
        <ele>5</ele>
        <time>2026-03-06T17:33:45.000Z</time>
      </trkpt>
      <trkpt lat="43.38232" lon="-1.64309">
        <ele>5</ele>
        <time>2026-03-06T17:33:50.000Z</time>
      </trkpt>
      <trkpt lat="43.38212" lon="-1.64283">
        <ele>5</ele>
        <time>2026-03-06T17:33:55.000Z</time>
      </trkpt>
      <trkpt lat="43.38155" lon="-1.6423">
        <ele>6</ele>
        <time>2026-03-06T17:34:08.000Z</time>
      </trkpt>
      <trkpt lat="43.3812" lon="-1.64193">
        <ele>6</ele>
        <time>2026-03-06T17:34:15.000Z</time>
      </trkpt>
      <trkpt lat="43.38056" lon="-1.64058">
        <ele>9</ele>
        <time>2026-03-06T17:34:36.000Z</time>
      </trkpt>
      <trkpt lat="43.37906" lon="-1.63917">
        <ele>6</ele>
        <time>2026-03-06T17:35:09.000Z</time>
      </trkpt>
      <trkpt lat="43.37776" lon="-1.63786">
        <ele>8</ele>
        <time>2026-03-06T17:35:37.000Z</time>
      </trkpt>
      <trkpt lat="43.37759" lon="-1.63774">
        <ele>8</ele>
        <time>2026-03-06T17:35:41.000Z</time>
      </trkpt>
      <trkpt lat="43.37738" lon="-1.63772">
        <ele>8</ele>
        <time>2026-03-06T17:35:44.000Z</time>
      </trkpt>
      <trkpt lat="43.37642" lon="-1.63776">
        <ele>6</ele>
        <time>2026-03-06T17:36:01.000Z</time>
      </trkpt>
      <trkpt lat="43.37604" lon="-1.63785">
        <ele>6</ele>
        <time>2026-03-06T17:36:08.000Z</time>
      </trkpt>
      <trkpt lat="43.37541" lon="-1.63786">
        <ele>5</ele>
        <time>2026-03-06T17:36:20.000Z</time>
      </trkpt>
      <trkpt lat="43.37526" lon="-1.63781">
        <ele>5</ele>
        <time>2026-03-06T17:36:22.000Z</time>
      </trkpt>
      <trkpt lat="43.37517" lon="-1.6379">
        <ele>4</ele>
        <time>2026-03-06T17:36:24.000Z</time>
      </trkpt>
      <trkpt lat="43.3751" lon="-1.63791">
        <ele>4</ele>
        <time>2026-03-06T17:36:26.000Z</time>
      </trkpt>
      <trkpt lat="43.37445" lon="-1.63794">
        <ele>4</ele>
        <time>2026-03-06T17:36:37.000Z</time>
      </trkpt>
      <trkpt lat="43.37409" lon="-1.63788">
        <ele>4</ele>
        <time>2026-03-06T17:36:44.000Z</time>
      </trkpt>
      <trkpt lat="43.37111" lon="-1.63806">
        <ele>5</ele>
        <time>2026-03-06T17:37:37.000Z</time>
      </trkpt>
      <trkpt lat="43.37085" lon="-1.63801">
        <ele>6</ele>
        <time>2026-03-06T17:37:41.000Z</time>
      </trkpt>
      <trkpt lat="43.37063" lon="-1.63793">
        <ele>6</ele>
        <time>2026-03-06T17:37:45.000Z</time>
      </trkpt>
      <trkpt lat="43.36745" lon="-1.63592">
        <ele>7</ele>
        <time>2026-03-06T17:38:48.000Z</time>
      </trkpt>
      <trkpt lat="43.36707" lon="-1.63575">
        <ele>8</ele>
        <time>2026-03-06T17:38:55.000Z</time>
      </trkpt>
      <trkpt lat="43.36679" lon="-1.63572">
        <ele>8</ele>
        <time>2026-03-06T17:39:00.000Z</time>
      </trkpt>
      <trkpt lat="43.36639" lon="-1.63578">
        <ele>7</ele>
        <time>2026-03-06T17:39:07.000Z</time>
      </trkpt>
      <trkpt lat="43.36317" lon="-1.63673">
        <ele>7</ele>
        <time>2026-03-06T17:40:05.000Z</time>
      </trkpt>
      <trkpt lat="43.36273" lon="-1.63671">
        <ele>6</ele>
        <time>2026-03-06T17:40:13.000Z</time>
      </trkpt>
      <trkpt lat="43.36233" lon="-1.63654">
        <ele>6</ele>
        <time>2026-03-06T17:40:21.000Z</time>
      </trkpt>
      <trkpt lat="43.36111" lon="-1.63609">
        <ele>5</ele>
        <time>2026-03-06T17:40:43.000Z</time>
      </trkpt>
      <trkpt lat="43.36075" lon="-1.63589">
        <ele>5</ele>
        <time>2026-03-06T17:40:50.000Z</time>
      </trkpt>
      <trkpt lat="43.36061" lon="-1.63577">
        <ele>5</ele>
        <time>2026-03-06T17:40:53.000Z</time>
      </trkpt>
      <trkpt lat="43.36042" lon="-1.63555">
        <ele>6</ele>
        <time>2026-03-06T17:40:57.000Z</time>
      </trkpt>
      <trkpt lat="43.36029" lon="-1.63532">
        <ele>6</ele>
        <time>2026-03-06T17:41:01.000Z</time>
      </trkpt>
      <trkpt lat="43.36011" lon="-1.63495">
        <ele>6</ele>
        <time>2026-03-06T17:41:07.000Z</time>
      </trkpt>
      <trkpt lat="43.35991" lon="-1.63443">
        <ele>8</ele>
        <time>2026-03-06T17:41:15.000Z</time>
      </trkpt>
      <trkpt lat="43.35932" lon="-1.63351">
        <ele>9</ele>
        <time>2026-03-06T17:41:30.000Z</time>
      </trkpt>
      <trkpt lat="43.35827" lon="-1.63249">
        <ele>8</ele>
        <time>2026-03-06T17:41:53.000Z</time>
      </trkpt>
      <trkpt lat="43.35789" lon="-1.63219">
        <ele>9</ele>
        <time>2026-03-06T17:42:01.000Z</time>
      </trkpt>
      <trkpt lat="43.35749" lon="-1.63192">
        <ele>7</ele>
        <time>2026-03-06T17:42:09.000Z</time>
      </trkpt>
      <trkpt lat="43.35679" lon="-1.63165">
        <ele>6</ele>
        <time>2026-03-06T17:42:22.000Z</time>
      </trkpt>
      <trkpt lat="43.35667" lon="-1.63163">
        <ele>6</ele>
        <time>2026-03-06T17:42:24.000Z</time>
      </trkpt>
      <trkpt lat="43.35663" lon="-1.63166">
        <ele>6</ele>
        <time>2026-03-06T17:42:25.000Z</time>
      </trkpt>
      <trkpt lat="43.35657" lon="-1.63166">
        <ele>6</ele>
        <time>2026-03-06T17:42:26.000Z</time>
      </trkpt>
      <trkpt lat="43.35638" lon="-1.63154">
        <ele>6</ele>
        <time>2026-03-06T17:42:30.000Z</time>
      </trkpt>
      <trkpt lat="43.3544" lon="-1.63096">
        <ele>6</ele>
        <time>2026-03-06T17:43:06.000Z</time>
      </trkpt>
      <trkpt lat="43.35403" lon="-1.63082">
        <ele>7</ele>
        <time>2026-03-06T17:43:13.000Z</time>
      </trkpt>
      <trkpt lat="43.35365" lon="-1.63059">
        <ele>7</ele>
        <time>2026-03-06T17:43:20.000Z</time>
      </trkpt>
      <trkpt lat="43.35332" lon="-1.63028">
        <ele>7</ele>
        <time>2026-03-06T17:43:27.000Z</time>
      </trkpt>
      <trkpt lat="43.35306" lon="-1.62998">
        <ele>6</ele>
        <time>2026-03-06T17:43:33.000Z</time>
      </trkpt>
      <trkpt lat="43.35289" lon="-1.62974">
        <ele>6</ele>
        <time>2026-03-06T17:43:37.000Z</time>
      </trkpt>
      <trkpt lat="43.3528" lon="-1.62956">
        <ele>6</ele>
        <time>2026-03-06T17:43:40.000Z</time>
      </trkpt>
      <trkpt lat="43.35258" lon="-1.62906">
        <ele>6</ele>
        <time>2026-03-06T17:43:48.000Z</time>
      </trkpt>
      <trkpt lat="43.35207" lon="-1.62759">
        <ele>8</ele>
        <time>2026-03-06T17:44:09.000Z</time>
      </trkpt>
      <trkpt lat="43.35118" lon="-1.62528">
        <ele>12</ele>
        <time>2026-03-06T17:44:43.000Z</time>
      </trkpt>
      <trkpt lat="43.35108" lon="-1.62493">
        <ele>11</ele>
        <time>2026-03-06T17:44:48.000Z</time>
      </trkpt>
      <trkpt lat="43.35103" lon="-1.62461">
        <ele>10</ele>
        <time>2026-03-06T17:44:52.000Z</time>
      </trkpt>
      <trkpt lat="43.35103" lon="-1.62402">
        <ele>11</ele>
        <time>2026-03-06T17:44:59.000Z</time>
      </trkpt>
      <trkpt lat="43.35109" lon="-1.62334">
        <ele>10</ele>
        <time>2026-03-06T17:45:08.000Z</time>
      </trkpt>
      <trkpt lat="43.35118" lon="-1.62308">
        <ele>11</ele>
        <time>2026-03-06T17:45:12.000Z</time>
      </trkpt>
      <trkpt lat="43.35181" lon="-1.62185">
        <ele>11</ele>
        <time>2026-03-06T17:45:32.000Z</time>
      </trkpt>
      <trkpt lat="43.35191" lon="-1.62169">
        <ele>11</ele>
        <time>2026-03-06T17:45:34.000Z</time>
      </trkpt>
      <trkpt lat="43.35214" lon="-1.62143">
        <ele>12</ele>
        <time>2026-03-06T17:45:40.000Z</time>
      </trkpt>
      <trkpt lat="43.3524" lon="-1.62126">
        <ele>14</ele>
        <time>2026-03-06T17:45:45.000Z</time>
      </trkpt>
      <trkpt lat="43.35407" lon="-1.6206">
        <ele>21</ele>
        <time>2026-03-06T17:46:16.000Z</time>
      </trkpt>
      <trkpt lat="43.35432" lon="-1.62045">
        <ele>21</ele>
        <time>2026-03-06T17:46:20.000Z</time>
      </trkpt>
      <trkpt lat="43.35486" lon="-1.62001">
        <ele>18</ele>
        <time>2026-03-06T17:46:32.000Z</time>
      </trkpt>
      <trkpt lat="43.35515" lon="-1.61963">
        <ele>18</ele>
        <time>2026-03-06T17:46:39.000Z</time>
      </trkpt>
      <trkpt lat="43.35787" lon="-1.61535">
        <ele>14</ele>
        <time>2026-03-06T17:47:52.000Z</time>
      </trkpt>
      <trkpt lat="43.35815" lon="-1.61503">
        <ele>12</ele>
        <time>2026-03-06T17:47:59.000Z</time>
      </trkpt>
      <trkpt lat="43.35913" lon="-1.61419">
        <ele>16</ele>
        <time>2026-03-06T17:48:19.000Z</time>
      </trkpt>
      <trkpt lat="43.35934" lon="-1.61396">
        <ele>16</ele>
        <time>2026-03-06T17:48:24.000Z</time>
      </trkpt>
      <trkpt lat="43.36026" lon="-1.61276">
        <ele>11</ele>
        <time>2026-03-06T17:48:47.000Z</time>
      </trkpt>
      <trkpt lat="43.36042" lon="-1.61253">
        <ele>11</ele>
        <time>2026-03-06T17:48:51.000Z</time>
      </trkpt>
      <trkpt lat="43.36058" lon="-1.61224">
        <ele>11</ele>
        <time>2026-03-06T17:48:55.000Z</time>
      </trkpt>
      <trkpt lat="43.36075" lon="-1.61188">
        <ele>12</ele>
        <time>2026-03-06T17:49:01.000Z</time>
      </trkpt>
      <trkpt lat="43.36091" lon="-1.61139">
        <ele>13</ele>
        <time>2026-03-06T17:49:08.000Z</time>
      </trkpt>
      <trkpt lat="43.361" lon="-1.61078">
        <ele>15</ele>
        <time>2026-03-06T17:49:16.000Z</time>
      </trkpt>
      <trkpt lat="43.36105" lon="-1.61018">
        <ele>17</ele>
        <time>2026-03-06T17:49:24.000Z</time>
      </trkpt>
      <trkpt lat="43.36113" lon="-1.60838">
        <ele>16</ele>
        <time>2026-03-06T17:49:47.000Z</time>
      </trkpt>
      <trkpt lat="43.36112" lon="-1.6083">
        <ele>16</ele>
        <time>2026-03-06T17:49:48.000Z</time>
      </trkpt>
      <trkpt lat="43.36119" lon="-1.6075">
        <ele>18</ele>
        <time>2026-03-06T17:49:59.000Z</time>
      </trkpt>
      <trkpt lat="43.36118" lon="-1.607">
        <ele>18</ele>
        <time>2026-03-06T17:50:05.000Z</time>
      </trkpt>
      <trkpt lat="43.36104" lon="-1.60586">
        <ele>18</ele>
        <time>2026-03-06T17:50:20.000Z</time>
      </trkpt>
      <trkpt lat="43.36102" lon="-1.60521">
        <ele>17</ele>
        <time>2026-03-06T17:50:29.000Z</time>
      </trkpt>
      <trkpt lat="43.36109" lon="-1.60457">
        <ele>16</ele>
        <time>2026-03-06T17:50:37.000Z</time>
      </trkpt>
      <trkpt lat="43.36118" lon="-1.6043">
        <ele>15</ele>
        <time>2026-03-06T17:50:41.000Z</time>
      </trkpt>
      <trkpt lat="43.36118" lon="-1.6043">
        <ele>15</ele>
        <time>2026-03-06T17:50:41.000Z</time>
      </trkpt>
      <trkpt lat="43.36125" lon="-1.6041">
        <ele>15</ele>
        <time>2026-03-06T17:50:44.000Z</time>
      </trkpt>
      <trkpt lat="43.36152" lon="-1.60365">
        <ele>14</ele>
        <time>2026-03-06T17:50:51.000Z</time>
      </trkpt>
      <trkpt lat="43.36173" lon="-1.60338">
        <ele>13</ele>
        <time>2026-03-06T17:50:56.000Z</time>
      </trkpt>
      <trkpt lat="43.36203" lon="-1.60308">
        <ele>15</ele>
        <time>2026-03-06T17:51:03.000Z</time>
      </trkpt>
      <trkpt lat="43.36265" lon="-1.60257">
        <ele>19</ele>
        <time>2026-03-06T17:51:16.000Z</time>
      </trkpt>
      <trkpt lat="43.36299" lon="-1.60225">
        <ele>21</ele>
        <time>2026-03-06T17:51:23.000Z</time>
      </trkpt>
      <trkpt lat="43.36326" lon="-1.60185">
        <ele>18</ele>
        <time>2026-03-06T17:51:30.000Z</time>
      </trkpt>
      <trkpt lat="43.36345" lon="-1.6014">
        <ele>16</ele>
        <time>2026-03-06T17:51:37.000Z</time>
      </trkpt>
      <trkpt lat="43.36369" lon="-1.60073">
        <ele>15</ele>
        <time>2026-03-06T17:51:46.000Z</time>
      </trkpt>
      <trkpt lat="43.36392" lon="-1.60032">
        <ele>14</ele>
        <time>2026-03-06T17:51:53.000Z</time>
      </trkpt>
      <trkpt lat="43.36426" lon="-1.59985">
        <ele>13</ele>
        <time>2026-03-06T17:52:02.000Z</time>
      </trkpt>
      <trkpt lat="43.36476" lon="-1.5994">
        <ele>14</ele>
        <time>2026-03-06T17:52:12.000Z</time>
      </trkpt>
      <trkpt lat="43.36533" lon="-1.59897">
        <ele>16</ele>
        <time>2026-03-06T17:52:24.000Z</time>
      </trkpt>
      <trkpt lat="43.36549" lon="-1.59873">
        <ele>17</ele>
        <time>2026-03-06T17:52:28.000Z</time>
      </trkpt>
      <trkpt lat="43.36562" lon="-1.59843">
        <ele>18</ele>
        <time>2026-03-06T17:52:33.000Z</time>
      </trkpt>
      <trkpt lat="43.36567" lon="-1.59809">
        <ele>18</ele>
        <time>2026-03-06T17:52:37.000Z</time>
      </trkpt>
      <trkpt lat="43.36588" lon="-1.59546">
        <ele>11</ele>
        <time>2026-03-06T17:53:11.000Z</time>
      </trkpt>
      <trkpt lat="43.36592" lon="-1.59482">
        <ele>9</ele>
        <time>2026-03-06T17:53:20.000Z</time>
      </trkpt>
      <trkpt lat="43.36589" lon="-1.5943">
        <ele>9</ele>
        <time>2026-03-06T17:53:26.000Z</time>
      </trkpt>
      <trkpt lat="43.36581" lon="-1.59376">
        <ele>9</ele>
        <time>2026-03-06T17:53:34.000Z</time>
      </trkpt>
      <trkpt lat="43.36538" lon="-1.59228">
        <ele>10</ele>
        <time>2026-03-06T17:53:54.000Z</time>
      </trkpt>
      <trkpt lat="43.36482" lon="-1.59044">
        <ele>9</ele>
        <time>2026-03-06T17:54:20.000Z</time>
      </trkpt>
      <trkpt lat="43.3646" lon="-1.58976">
        <ele>11</ele>
        <time>2026-03-06T17:54:30.000Z</time>
      </trkpt>
      <trkpt lat="43.36444" lon="-1.58941">
        <ele>12</ele>
        <time>2026-03-06T17:54:35.000Z</time>
      </trkpt>
      <trkpt lat="43.36427" lon="-1.58913">
        <ele>13</ele>
        <time>2026-03-06T17:54:40.000Z</time>
      </trkpt>
      <trkpt lat="43.36402" lon="-1.58885">
        <ele>17</ele>
        <time>2026-03-06T17:54:45.000Z</time>
      </trkpt>
      <trkpt lat="43.36308" lon="-1.58801">
        <ele>19</ele>
        <time>2026-03-06T17:55:05.000Z</time>
      </trkpt>
      <trkpt lat="43.3628" lon="-1.58766">
        <ele>18</ele>
        <time>2026-03-06T17:55:12.000Z</time>
      </trkpt>
      <trkpt lat="43.36257" lon="-1.58723">
        <ele>14</ele>
        <time>2026-03-06T17:55:19.000Z</time>
      </trkpt>
      <trkpt lat="43.36164" lon="-1.58429">
        <ele>12</ele>
        <time>2026-03-06T17:56:00.000Z</time>
      </trkpt>
      <trkpt lat="43.36139" lon="-1.58363">
        <ele>12</ele>
        <time>2026-03-06T17:56:10.000Z</time>
      </trkpt>
      <trkpt lat="43.36129" lon="-1.58341">
        <ele>12</ele>
        <time>2026-03-06T17:56:13.000Z</time>
      </trkpt>
      <trkpt lat="43.36109" lon="-1.58303">
        <ele>12</ele>
        <time>2026-03-06T17:56:20.000Z</time>
      </trkpt>
      <trkpt lat="43.36003" lon="-1.58148">
        <ele>11</ele>
        <time>2026-03-06T17:56:47.000Z</time>
      </trkpt>
      <trkpt lat="43.35894" lon="-1.57993">
        <ele>11</ele>
        <time>2026-03-06T17:57:15.000Z</time>
      </trkpt>
      <trkpt lat="43.35864" lon="-1.57937">
        <ele>12</ele>
        <time>2026-03-06T17:57:24.000Z</time>
      </trkpt>
      <trkpt lat="43.35852" lon="-1.57913">
        <ele>12</ele>
        <time>2026-03-06T17:57:28.000Z</time>
      </trkpt>
      <trkpt lat="43.35838" lon="-1.57869">
        <ele>11</ele>
        <time>2026-03-06T17:57:34.000Z</time>
      </trkpt>
      <trkpt lat="43.35807" lon="-1.5772">
        <ele>12</ele>
        <time>2026-03-06T17:57:54.000Z</time>
      </trkpt>
      <trkpt lat="43.35782" lon="-1.57586">
        <ele>13</ele>
        <time>2026-03-06T17:58:12.000Z</time>
      </trkpt>
      <trkpt lat="43.35779" lon="-1.57552">
        <ele>13</ele>
        <time>2026-03-06T17:58:16.000Z</time>
      </trkpt>
      <trkpt lat="43.35779" lon="-1.57526">
        <ele>13</ele>
        <time>2026-03-06T17:58:20.000Z</time>
      </trkpt>
      <trkpt lat="43.35774" lon="-1.5748">
        <ele>13</ele>
        <time>2026-03-06T17:58:26.000Z</time>
      </trkpt>
      <trkpt lat="43.3577" lon="-1.57476">
        <ele>13</ele>
        <time>2026-03-06T17:58:27.000Z</time>
      </trkpt>
      <trkpt lat="43.35768" lon="-1.57469">
        <ele>13</ele>
        <time>2026-03-06T17:58:28.000Z</time>
      </trkpt>
      <trkpt lat="43.35771" lon="-1.57459">
        <ele>13</ele>
        <time>2026-03-06T17:58:29.000Z</time>
      </trkpt>
      <trkpt lat="43.35763" lon="-1.57418">
        <ele>13</ele>
        <time>2026-03-06T17:58:34.000Z</time>
      </trkpt>
      <trkpt lat="43.35745" lon="-1.57225">
        <ele>14</ele>
        <time>2026-03-06T17:59:00.000Z</time>
      </trkpt>
      <trkpt lat="43.3574" lon="-1.57189">
        <ele>15</ele>
        <time>2026-03-06T17:59:04.000Z</time>
      </trkpt>
      <trkpt lat="43.35733" lon="-1.5716">
        <ele>15</ele>
        <time>2026-03-06T17:59:08.000Z</time>
      </trkpt>
      <trkpt lat="43.35723" lon="-1.5713">
        <ele>15</ele>
        <time>2026-03-06T17:59:13.000Z</time>
      </trkpt>
      <trkpt lat="43.35625" lon="-1.56922">
        <ele>17</ele>
        <time>2026-03-06T17:59:45.000Z</time>
      </trkpt>
      <trkpt lat="43.35608" lon="-1.56893">
        <ele>17</ele>
        <time>2026-03-06T17:59:49.000Z</time>
      </trkpt>
      <trkpt lat="43.35593" lon="-1.56864">
        <ele>17</ele>
        <time>2026-03-06T17:59:54.000Z</time>
      </trkpt>
      <trkpt lat="43.35588" lon="-1.56851">
        <ele>17</ele>
        <time>2026-03-06T17:59:56.000Z</time>
      </trkpt>
      <trkpt lat="43.35585" lon="-1.56823">
        <ele>17</ele>
        <time>2026-03-06T18:00:00.000Z</time>
      </trkpt>
      <trkpt lat="43.35587" lon="-1.56801">
        <ele>17</ele>
        <time>2026-03-06T18:00:03.000Z</time>
      </trkpt>
      <trkpt lat="43.35592" lon="-1.56778">
        <ele>17</ele>
        <time>2026-03-06T18:00:06.000Z</time>
      </trkpt>
      <trkpt lat="43.35617" lon="-1.56692">
        <ele>19</ele>
        <time>2026-03-06T18:00:18.000Z</time>
      </trkpt>
      <trkpt lat="43.35625" lon="-1.56642">
        <ele>19</ele>
        <time>2026-03-06T18:00:24.000Z</time>
      </trkpt>
      <trkpt lat="43.35624" lon="-1.56615">
        <ele>19</ele>
        <time>2026-03-06T18:00:28.000Z</time>
      </trkpt>
      <trkpt lat="43.35621" lon="-1.56614">
        <ele>19</ele>
        <time>2026-03-06T18:00:28.000Z</time>
      </trkpt>
      <trkpt lat="43.35616" lon="-1.56605">
        <ele>19</ele>
        <time>2026-03-06T18:00:30.000Z</time>
      </trkpt>
      <trkpt lat="43.35615" lon="-1.56601">
        <ele>19</ele>
        <time>2026-03-06T18:00:30.000Z</time>
      </trkpt>
      <trkpt lat="43.35617" lon="-1.56593">
        <ele>19</ele>
        <time>2026-03-06T18:00:31.000Z</time>
      </trkpt>
      <trkpt lat="43.35621" lon="-1.56588">
        <ele>19</ele>
        <time>2026-03-06T18:00:32.000Z</time>
      </trkpt>
      <trkpt lat="43.35624" lon="-1.56587">
        <ele>19</ele>
        <time>2026-03-06T18:00:33.000Z</time>
      </trkpt>
      <trkpt lat="43.35622" lon="-1.56558">
        <ele>19</ele>
        <time>2026-03-06T18:00:37.000Z</time>
      </trkpt>
      <trkpt lat="43.35622" lon="-1.56509">
        <ele>19</ele>
        <time>2026-03-06T18:00:43.000Z</time>
      </trkpt>
      <trkpt lat="43.35615" lon="-1.56214">
        <ele>19</ele>
        <time>2026-03-06T18:01:21.000Z</time>
      </trkpt>
      <trkpt lat="43.35617" lon="-1.5617">
        <ele>19</ele>
        <time>2026-03-06T18:01:27.000Z</time>
      </trkpt>
      <trkpt lat="43.35625" lon="-1.56126">
        <ele>18</ele>
        <time>2026-03-06T18:01:33.000Z</time>
      </trkpt>
      <trkpt lat="43.35635" lon="-1.56106">
        <ele>18</ele>
        <time>2026-03-06T18:01:36.000Z</time>
      </trkpt>
      <trkpt lat="43.35652" lon="-1.56086">
        <ele>18</ele>
        <time>2026-03-06T18:01:40.000Z</time>
      </trkpt>
      <trkpt lat="43.35627" lon="-1.56036">
        <ele>16</ele>
        <time>2026-03-06T18:01:48.000Z</time>
      </trkpt>
      <trkpt lat="43.35597" lon="-1.55988">
        <ele>15</ele>
        <time>2026-03-06T18:01:56.000Z</time>
      </trkpt>
      <trkpt lat="43.35594" lon="-1.55961">
        <ele>15</ele>
        <time>2026-03-06T18:01:59.000Z</time>
      </trkpt>
      <trkpt lat="43.35601" lon="-1.5592">
        <ele>14</ele>
        <time>2026-03-06T18:02:05.000Z</time>
      </trkpt>
      <trkpt lat="43.35596" lon="-1.55849">
        <ele>15</ele>
        <time>2026-03-06T18:02:14.000Z</time>
      </trkpt>
      <trkpt lat="43.35588" lon="-1.55806">
        <ele>15</ele>
        <time>2026-03-06T18:02:20.000Z</time>
      </trkpt>
      <trkpt lat="43.35585" lon="-1.55759">
        <ele>16</ele>
        <time>2026-03-06T18:02:26.000Z</time>
      </trkpt>
      <trkpt lat="43.35586" lon="-1.5563">
        <ele>16</ele>
        <time>2026-03-06T18:02:43.000Z</time>
      </trkpt>
      <trkpt lat="43.35583" lon="-1.55545">
        <ele>14</ele>
        <time>2026-03-06T18:02:54.000Z</time>
      </trkpt>
      <trkpt lat="43.3558" lon="-1.55498">
        <ele>13</ele>
        <time>2026-03-06T18:03:00.000Z</time>
      </trkpt>
      <trkpt lat="43.35577" lon="-1.55474">
        <ele>14</ele>
        <time>2026-03-06T18:03:03.000Z</time>
      </trkpt>
      <trkpt lat="43.35574" lon="-1.55465">
        <ele>14</ele>
        <time>2026-03-06T18:03:04.000Z</time>
      </trkpt>
      <trkpt lat="43.35563" lon="-1.55444">
        <ele>15</ele>
        <time>2026-03-06T18:03:08.000Z</time>
      </trkpt>
      <trkpt lat="43.35552" lon="-1.55434">
        <ele>15</ele>
        <time>2026-03-06T18:03:10.000Z</time>
      </trkpt>
      <trkpt lat="43.35543" lon="-1.5543">
        <ele>15</ele>
        <time>2026-03-06T18:03:12.000Z</time>
      </trkpt>
      <trkpt lat="43.35538" lon="-1.55421">
        <ele>15</ele>
        <time>2026-03-06T18:03:13.000Z</time>
      </trkpt>
      <trkpt lat="43.35537" lon="-1.55411">
        <ele>16</ele>
        <time>2026-03-06T18:03:14.000Z</time>
      </trkpt>
      <trkpt lat="43.35523" lon="-1.55388">
        <ele>16</ele>
        <time>2026-03-06T18:03:18.000Z</time>
      </trkpt>
      <trkpt lat="43.35509" lon="-1.55378">
        <ele>16</ele>
        <time>2026-03-06T18:03:21.000Z</time>
      </trkpt>
      <trkpt lat="43.35496" lon="-1.55373">
        <ele>16</ele>
        <time>2026-03-06T18:03:23.000Z</time>
      </trkpt>
      <trkpt lat="43.35483" lon="-1.5537">
        <ele>16</ele>
        <time>2026-03-06T18:03:26.000Z</time>
      </trkpt>
      <trkpt lat="43.35456" lon="-1.55371">
        <ele>16</ele>
        <time>2026-03-06T18:03:31.000Z</time>
      </trkpt>
      <trkpt lat="43.35398" lon="-1.5538">
        <ele>16</ele>
        <time>2026-03-06T18:03:41.000Z</time>
      </trkpt>
      <trkpt lat="43.35369" lon="-1.55382">
        <ele>16</ele>
        <time>2026-03-06T18:03:46.000Z</time>
      </trkpt>
      <trkpt lat="43.35338" lon="-1.55377">
        <ele>16</ele>
        <time>2026-03-06T18:03:52.000Z</time>
      </trkpt>
      <trkpt lat="43.35313" lon="-1.55363">
        <ele>17</ele>
        <time>2026-03-06T18:03:56.000Z</time>
      </trkpt>
      <trkpt lat="43.35293" lon="-1.55347">
        <ele>17</ele>
        <time>2026-03-06T18:04:01.000Z</time>
      </trkpt>
      <trkpt lat="43.35274" lon="-1.55324">
        <ele>18</ele>
        <time>2026-03-06T18:04:05.000Z</time>
      </trkpt>
      <trkpt lat="43.35261" lon="-1.55301">
        <ele>17</ele>
        <time>2026-03-06T18:04:09.000Z</time>
      </trkpt>
      <trkpt lat="43.35123" lon="-1.5499">
        <ele>18</ele>
        <time>2026-03-06T18:04:56.000Z</time>
      </trkpt>
      <trkpt lat="43.35117" lon="-1.54993">
        <ele>18</ele>
        <time>2026-03-06T18:04:57.000Z</time>
      </trkpt>
      <trkpt lat="43.3511" lon="-1.54994">
        <ele>18</ele>
        <time>2026-03-06T18:04:58.000Z</time>
      </trkpt>
      <trkpt lat="43.35104" lon="-1.54993">
        <ele>18</ele>
        <time>2026-03-06T18:04:59.000Z</time>
      </trkpt>
      <trkpt lat="43.35098" lon="-1.54988">
        <ele>18</ele>
        <time>2026-03-06T18:05:01.000Z</time>
      </trkpt>
      <trkpt lat="43.35078" lon="-1.54991">
        <ele>19</ele>
        <time>2026-03-06T18:05:04.000Z</time>
      </trkpt>
      <trkpt lat="43.34874" lon="-1.55162">
        <ele>21</ele>
        <time>2026-03-06T18:05:47.000Z</time>
      </trkpt>
      <trkpt lat="43.34865" lon="-1.55186">
        <ele>20</ele>
        <time>2026-03-06T18:05:50.000Z</time>
      </trkpt>
      <trkpt lat="43.34857" lon="-1.5523">
        <ele>19</ele>
        <time>2026-03-06T18:05:56.000Z</time>
      </trkpt>
      <trkpt lat="43.34847" lon="-1.55243">
        <ele>18</ele>
        <time>2026-03-06T18:05:59.000Z</time>
      </trkpt>
      <trkpt lat="43.34831" lon="-1.55248">
        <ele>18</ele>
        <time>2026-03-06T18:06:02.000Z</time>
      </trkpt>
      <trkpt lat="43.34821" lon="-1.55247">
        <ele>18</ele>
        <time>2026-03-06T18:06:03.000Z</time>
      </trkpt>
      <trkpt lat="43.34801" lon="-1.55235">
        <ele>19</ele>
        <time>2026-03-06T18:06:07.000Z</time>
      </trkpt>
      <trkpt lat="43.34597" lon="-1.55214">
        <ele>19</ele>
        <time>2026-03-06T18:06:44.000Z</time>
      </trkpt>
      <trkpt lat="43.34571" lon="-1.55205">
        <ele>19</ele>
        <time>2026-03-06T18:06:48.000Z</time>
      </trkpt>
      <trkpt lat="43.34548" lon="-1.55189">
        <ele>20</ele>
        <time>2026-03-06T18:06:53.000Z</time>
      </trkpt>
      <trkpt lat="43.3449" lon="-1.55114">
        <ele>22</ele>
        <time>2026-03-06T18:07:07.000Z</time>
      </trkpt>
      <trkpt lat="43.3434" lon="-1.5491">
        <ele>30</ele>
        <time>2026-03-06T18:07:45.000Z</time>
      </trkpt>
      <trkpt lat="43.34313" lon="-1.54884">
        <ele>30</ele>
        <time>2026-03-06T18:07:51.000Z</time>
      </trkpt>
      <trkpt lat="43.34293" lon="-1.54871">
        <ele>30</ele>
        <time>2026-03-06T18:07:54.000Z</time>
      </trkpt>
      <trkpt lat="43.34268" lon="-1.54861">
        <ele>31</ele>
        <time>2026-03-06T18:07:59.000Z</time>
      </trkpt>
      <trkpt lat="43.34239" lon="-1.54859">
        <ele>32</ele>
        <time>2026-03-06T18:08:04.000Z</time>
      </trkpt>
      <trkpt lat="43.34212" lon="-1.54863">
        <ele>33</ele>
        <time>2026-03-06T18:08:09.000Z</time>
      </trkpt>
      <trkpt lat="43.34187" lon="-1.54872">
        <ele>34</ele>
        <time>2026-03-06T18:08:14.000Z</time>
      </trkpt>
      <trkpt lat="43.33939" lon="-1.55026">
        <ele>44</ele>
        <time>2026-03-06T18:09:02.000Z</time>
      </trkpt>
      <trkpt lat="43.33917" lon="-1.55038">
        <ele>45</ele>
        <time>2026-03-06T18:09:06.000Z</time>
      </trkpt>
      <trkpt lat="43.33903" lon="-1.55043">
        <ele>44</ele>
        <time>2026-03-06T18:09:09.000Z</time>
      </trkpt>
      <trkpt lat="43.33886" lon="-1.55044">
        <ele>42</ele>
        <time>2026-03-06T18:09:12.000Z</time>
      </trkpt>
      <trkpt lat="43.33855" lon="-1.5503">
        <ele>39</ele>
        <time>2026-03-06T18:09:18.000Z</time>
      </trkpt>
      <trkpt lat="43.33689" lon="-1.54934">
        <ele>34</ele>
        <time>2026-03-06T18:09:50.000Z</time>
      </trkpt>
      <trkpt lat="43.33606" lon="-1.54902">
        <ele>38</ele>
        <time>2026-03-06T18:10:05.000Z</time>
      </trkpt>
      <trkpt lat="43.33528" lon="-1.54864">
        <ele>36</ele>
        <time>2026-03-06T18:10:20.000Z</time>
      </trkpt>
      <trkpt lat="43.33451" lon="-1.54835">
        <ele>35</ele>
        <time>2026-03-06T18:10:34.000Z</time>
      </trkpt>
      <trkpt lat="43.33342" lon="-1.5481">
        <ele>40</ele>
        <time>2026-03-06T18:10:54.000Z</time>
      </trkpt>
      <trkpt lat="43.33316" lon="-1.54798">
        <ele>42</ele>
        <time>2026-03-06T18:10:59.000Z</time>
      </trkpt>
      <trkpt lat="43.33231" lon="-1.54721">
        <ele>41</ele>
        <time>2026-03-06T18:11:17.000Z</time>
      </trkpt>
      <trkpt lat="43.3321" lon="-1.54694">
        <ele>39</ele>
        <time>2026-03-06T18:11:22.000Z</time>
      </trkpt>
      <trkpt lat="43.33195" lon="-1.54663">
        <ele>37</ele>
        <time>2026-03-06T18:11:27.000Z</time>
      </trkpt>
      <trkpt lat="43.3317" lon="-1.54594">
        <ele>35</ele>
        <time>2026-03-06T18:11:37.000Z</time>
      </trkpt>
      <trkpt lat="43.33146" lon="-1.54555">
        <ele>34</ele>
        <time>2026-03-06T18:11:43.000Z</time>
      </trkpt>
      <trkpt lat="43.331" lon="-1.54501">
        <ele>33</ele>
        <time>2026-03-06T18:11:54.000Z</time>
      </trkpt>
      <trkpt lat="43.33052" lon="-1.54449">
        <ele>32</ele>
        <time>2026-03-06T18:12:05.000Z</time>
      </trkpt>
      <trkpt lat="43.33034" lon="-1.54441">
        <ele>31</ele>
        <time>2026-03-06T18:12:08.000Z</time>
      </trkpt>
      <trkpt lat="43.33014" lon="-1.54435">
        <ele>31</ele>
        <time>2026-03-06T18:12:12.000Z</time>
      </trkpt>
      <trkpt lat="43.32992" lon="-1.54437">
        <ele>31</ele>
        <time>2026-03-06T18:12:16.000Z</time>
      </trkpt>
      <trkpt lat="43.32973" lon="-1.54445">
        <ele>31</ele>
        <time>2026-03-06T18:12:19.000Z</time>
      </trkpt>
      <trkpt lat="43.32897" lon="-1.54491">
        <ele>33</ele>
        <time>2026-03-06T18:12:34.000Z</time>
      </trkpt>
      <trkpt lat="43.32832" lon="-1.54536">
        <ele>38</ele>
        <time>2026-03-06T18:12:47.000Z</time>
      </trkpt>
      <trkpt lat="43.32568" lon="-1.5481">
        <ele>37</ele>
        <time>2026-03-06T18:13:46.000Z</time>
      </trkpt>
      <trkpt lat="43.32463" lon="-1.54892">
        <ele>34</ele>
        <time>2026-03-06T18:14:07.000Z</time>
      </trkpt>
      <trkpt lat="43.3238" lon="-1.54929">
        <ele>32</ele>
        <time>2026-03-06T18:14:23.000Z</time>
      </trkpt>
      <trkpt lat="43.32181" lon="-1.55023">
        <ele>30</ele>
        <time>2026-03-06T18:15:00.000Z</time>
      </trkpt>
      <trkpt lat="43.32152" lon="-1.55048">
        <ele>31</ele>
        <time>2026-03-06T18:15:06.000Z</time>
      </trkpt>
      <trkpt lat="43.32143" lon="-1.55021">
        <ele>31</ele>
        <time>2026-03-06T18:15:10.000Z</time>
      </trkpt>
      <trkpt lat="43.32132" lon="-1.54943">
        <ele>30</ele>
        <time>2026-03-06T18:15:21.000Z</time>
      </trkpt>
      <trkpt lat="43.32125" lon="-1.54918">
        <ele>30</ele>
        <time>2026-03-06T18:15:24.000Z</time>
      </trkpt>
      <trkpt lat="43.3212" lon="-1.54908">
        <ele>30</ele>
        <time>2026-03-06T18:15:26.000Z</time>
      </trkpt>
      <trkpt lat="43.31936" lon="-1.54676">
        <ele>40</ele>
        <time>2026-03-06T18:16:10.000Z</time>
      </trkpt>
      <trkpt lat="43.31912" lon="-1.5464">
        <ele>39</ele>
        <time>2026-03-06T18:16:16.000Z</time>
      </trkpt>
      <trkpt lat="43.31896" lon="-1.54605">
        <ele>40</ele>
        <time>2026-03-06T18:16:22.000Z</time>
      </trkpt>
      <trkpt lat="43.31881" lon="-1.54558">
        <ele>40</ele>
        <time>2026-03-06T18:16:28.000Z</time>
      </trkpt>
      <trkpt lat="43.31875" lon="-1.54516">
        <ele>40</ele>
        <time>2026-03-06T18:16:34.000Z</time>
      </trkpt>
      <trkpt lat="43.31874" lon="-1.54494">
        <ele>40</ele>
        <time>2026-03-06T18:16:37.000Z</time>
      </trkpt>
      <trkpt lat="43.31876" lon="-1.54458">
        <ele>41</ele>
        <time>2026-03-06T18:16:41.000Z</time>
      </trkpt>
      <trkpt lat="43.31878" lon="-1.54436">
        <ele>41</ele>
        <time>2026-03-06T18:16:44.000Z</time>
      </trkpt>
      <trkpt lat="43.31893" lon="-1.54372">
        <ele>41</ele>
        <time>2026-03-06T18:16:53.000Z</time>
      </trkpt>
      <trkpt lat="43.32005" lon="-1.5397">
        <ele>38</ele>
        <time>2026-03-06T18:17:49.000Z</time>
      </trkpt>
      <trkpt lat="43.32008" lon="-1.53954">
        <ele>39</ele>
        <time>2026-03-06T18:17:51.000Z</time>
      </trkpt>
      <trkpt lat="43.3201" lon="-1.5392">
        <ele>39</ele>
        <time>2026-03-06T18:17:55.000Z</time>
      </trkpt>
      <trkpt lat="43.31997" lon="-1.53637">
        <ele>40</ele>
        <time>2026-03-06T18:18:32.000Z</time>
      </trkpt>
      <trkpt lat="43.31993" lon="-1.53613">
        <ele>39</ele>
        <time>2026-03-06T18:18:35.000Z</time>
      </trkpt>
      <trkpt lat="43.31987" lon="-1.53592">
        <ele>39</ele>
        <time>2026-03-06T18:18:38.000Z</time>
      </trkpt>
      <trkpt lat="43.31979" lon="-1.53573">
        <ele>40</ele>
        <time>2026-03-06T18:18:41.000Z</time>
      </trkpt>
      <trkpt lat="43.31964" lon="-1.53548">
        <ele>40</ele>
        <time>2026-03-06T18:18:45.000Z</time>
      </trkpt>
      <trkpt lat="43.31773" lon="-1.53258">
        <ele>47</ele>
        <time>2026-03-06T18:19:36.000Z</time>
      </trkpt>
      <trkpt lat="43.31706" lon="-1.53153">
        <ele>48</ele>
        <time>2026-03-06T18:19:54.000Z</time>
      </trkpt>
      <trkpt lat="43.31805" lon="-1.52551">
        <ele>54</ele>
        <time>2026-03-06T18:21:14.000Z</time>
      </trkpt>
      <trkpt lat="43.31809" lon="-1.5252">
        <ele>53</ele>
        <time>2026-03-06T18:21:18.000Z</time>
      </trkpt>
      <trkpt lat="43.31809" lon="-1.52491">
        <ele>53</ele>
        <time>2026-03-06T18:21:22.000Z</time>
      </trkpt>
      <trkpt lat="43.31803" lon="-1.52462">
        <ele>55</ele>
        <time>2026-03-06T18:21:25.000Z</time>
      </trkpt>
      <trkpt lat="43.31793" lon="-1.52436">
        <ele>56</ele>
        <time>2026-03-06T18:21:29.000Z</time>
      </trkpt>
      <trkpt lat="43.31778" lon="-1.52409">
        <ele>57</ele>
        <time>2026-03-06T18:21:34.000Z</time>
      </trkpt>
      <trkpt lat="43.31688" lon="-1.52284">
        <ele>58</ele>
        <time>2026-03-06T18:21:56.000Z</time>
      </trkpt>
      <trkpt lat="43.31528" lon="-1.52056">
        <ele>65</ele>
        <time>2026-03-06T18:22:37.000Z</time>
      </trkpt>
      <trkpt lat="43.31509" lon="-1.52032">
        <ele>67</ele>
        <time>2026-03-06T18:22:42.000Z</time>
      </trkpt>
      <trkpt lat="43.3149" lon="-1.52019">
        <ele>68</ele>
        <time>2026-03-06T18:22:46.000Z</time>
      </trkpt>
      <trkpt lat="43.3144" lon="-1.51994">
        <ele>68</ele>
        <time>2026-03-06T18:22:55.000Z</time>
      </trkpt>
      <trkpt lat="43.31433" lon="-1.51989">
        <ele>68</ele>
        <time>2026-03-06T18:22:57.000Z</time>
      </trkpt>
      <trkpt lat="43.31426" lon="-1.51977">
        <ele>67</ele>
        <time>2026-03-06T18:22:59.000Z</time>
      </trkpt>
      <trkpt lat="43.3142" lon="-1.51963">
        <ele>67</ele>
        <time>2026-03-06T18:23:01.000Z</time>
      </trkpt>
      <trkpt lat="43.31413" lon="-1.51942">
        <ele>66</ele>
        <time>2026-03-06T18:23:04.000Z</time>
      </trkpt>
      <trkpt lat="43.31389" lon="-1.51818">
        <ele>68</ele>
        <time>2026-03-06T18:23:20.000Z</time>
      </trkpt>
      <trkpt lat="43.31381" lon="-1.51786">
        <ele>67</ele>
        <time>2026-03-06T18:23:25.000Z</time>
      </trkpt>
      <trkpt lat="43.31375" lon="-1.51768">
        <ele>67</ele>
        <time>2026-03-06T18:23:27.000Z</time>
      </trkpt>
      <trkpt lat="43.31354" lon="-1.51733">
        <ele>66</ele>
        <time>2026-03-06T18:23:33.000Z</time>
      </trkpt>
      <trkpt lat="43.31234" lon="-1.51552">
        <ele>66</ele>
        <time>2026-03-06T18:24:05.000Z</time>
      </trkpt>
      <trkpt lat="43.31226" lon="-1.51538">
        <ele>66</ele>
        <time>2026-03-06T18:24:07.000Z</time>
      </trkpt>
      <trkpt lat="43.31219" lon="-1.5152">
        <ele>66</ele>
        <time>2026-03-06T18:24:10.000Z</time>
      </trkpt>
      <trkpt lat="43.31192" lon="-1.51389">
        <ele>67</ele>
        <time>2026-03-06T18:24:28.000Z</time>
      </trkpt>
      <trkpt lat="43.31186" lon="-1.51324">
        <ele>67</ele>
        <time>2026-03-06T18:24:36.000Z</time>
      </trkpt>
      <trkpt lat="43.31182" lon="-1.51232">
        <ele>71</ele>
        <time>2026-03-06T18:24:48.000Z</time>
      </trkpt>
      <trkpt lat="43.31196" lon="-1.51141">
        <ele>70</ele>
        <time>2026-03-06T18:25:00.000Z</time>
      </trkpt>
      <trkpt lat="43.3121" lon="-1.5109">
        <ele>71</ele>
        <time>2026-03-06T18:25:07.000Z</time>
      </trkpt>
      <trkpt lat="43.31228" lon="-1.51035">
        <ele>71</ele>
        <time>2026-03-06T18:25:15.000Z</time>
      </trkpt>
      <trkpt lat="43.31247" lon="-1.50993">
        <ele>71</ele>
        <time>2026-03-06T18:25:21.000Z</time>
      </trkpt>
      <trkpt lat="43.31261" lon="-1.50969">
        <ele>72</ele>
        <time>2026-03-06T18:25:25.000Z</time>
      </trkpt>
      <trkpt lat="43.3129" lon="-1.50939">
        <ele>72</ele>
        <time>2026-03-06T18:25:32.000Z</time>
      </trkpt>
      <trkpt lat="43.31301" lon="-1.50917">
        <ele>71</ele>
        <time>2026-03-06T18:25:35.000Z</time>
      </trkpt>
      <trkpt lat="43.31355" lon="-1.50708">
        <ele>75</ele>
        <time>2026-03-06T18:26:04.000Z</time>
      </trkpt>
      <trkpt lat="43.31359" lon="-1.50681">
        <ele>77</ele>
        <time>2026-03-06T18:26:07.000Z</time>
      </trkpt>
      <trkpt lat="43.3136" lon="-1.50663">
        <ele>78</ele>
        <time>2026-03-06T18:26:10.000Z</time>
      </trkpt>
      <trkpt lat="43.31358" lon="-1.50641">
        <ele>78</ele>
        <time>2026-03-06T18:26:13.000Z</time>
      </trkpt>
      <trkpt lat="43.31308" lon="-1.50463">
        <ele>78</ele>
        <time>2026-03-06T18:26:37.000Z</time>
      </trkpt>
      <trkpt lat="43.31304" lon="-1.5043">
        <ele>77</ele>
        <time>2026-03-06T18:26:42.000Z</time>
      </trkpt>
      <trkpt lat="43.31308" lon="-1.50341">
        <ele>81</ele>
        <time>2026-03-06T18:26:53.000Z</time>
      </trkpt>
      <trkpt lat="43.31304" lon="-1.50311">
        <ele>83</ele>
        <time>2026-03-06T18:26:57.000Z</time>
      </trkpt>
      <trkpt lat="43.31298" lon="-1.50287">
        <ele>84</ele>
        <time>2026-03-06T18:27:00.000Z</time>
      </trkpt>
      <trkpt lat="43.31292" lon="-1.50272">
        <ele>86</ele>
        <time>2026-03-06T18:27:03.000Z</time>
      </trkpt>
      <trkpt lat="43.31264" lon="-1.50231">
        <ele>91</ele>
        <time>2026-03-06T18:27:10.000Z</time>
      </trkpt>
      <trkpt lat="43.31245" lon="-1.50207">
        <ele>93</ele>
        <time>2026-03-06T18:27:15.000Z</time>
      </trkpt>
      <trkpt lat="43.31207" lon="-1.50166">
        <ele>97</ele>
        <time>2026-03-06T18:27:23.000Z</time>
      </trkpt>
      <trkpt lat="43.31184" lon="-1.50123">
        <ele>97</ele>
        <time>2026-03-06T18:27:30.000Z</time>
      </trkpt>
      <trkpt lat="43.31148" lon="-1.50075">
        <ele>97</ele>
        <time>2026-03-06T18:27:39.000Z</time>
      </trkpt>
      <trkpt lat="43.31135" lon="-1.50043">
        <ele>97</ele>
        <time>2026-03-06T18:27:44.000Z</time>
      </trkpt>
      <trkpt lat="43.31127" lon="-1.49997">
        <ele>95</ele>
        <time>2026-03-06T18:27:50.000Z</time>
      </trkpt>
      <trkpt lat="43.31128" lon="-1.49878">
        <ele>95</ele>
        <time>2026-03-06T18:28:05.000Z</time>
      </trkpt>
      <trkpt lat="43.3113" lon="-1.4984">
        <ele>94</ele>
        <time>2026-03-06T18:28:10.000Z</time>
      </trkpt>
      <trkpt lat="43.31134" lon="-1.49819">
        <ele>94</ele>
        <time>2026-03-06T18:28:13.000Z</time>
      </trkpt>
      <trkpt lat="43.31137" lon="-1.49809">
        <ele>93</ele>
        <time>2026-03-06T18:28:14.000Z</time>
      </trkpt>
      <trkpt lat="43.31149" lon="-1.49783">
        <ele>92</ele>
        <time>2026-03-06T18:28:18.000Z</time>
      </trkpt>
      <trkpt lat="43.31159" lon="-1.49767">
        <ele>91</ele>
        <time>2026-03-06T18:28:21.000Z</time>
      </trkpt>
      <trkpt lat="43.31215" lon="-1.49711">
        <ele>87</ele>
        <time>2026-03-06T18:28:33.000Z</time>
      </trkpt>
      <trkpt lat="43.31307" lon="-1.49593">
        <ele>92</ele>
        <time>2026-03-06T18:28:56.000Z</time>
      </trkpt>
      <trkpt lat="43.31354" lon="-1.49552">
        <ele>94</ele>
        <time>2026-03-06T18:29:06.000Z</time>
      </trkpt>
      <trkpt lat="43.31431" lon="-1.49465">
        <ele>96</ele>
        <time>2026-03-06T18:29:23.000Z</time>
      </trkpt>
      <trkpt lat="43.31449" lon="-1.49443">
        <ele>98</ele>
        <time>2026-03-06T18:29:28.000Z</time>
      </trkpt>
      <trkpt lat="43.31515" lon="-1.49335">
        <ele>101</ele>
        <time>2026-03-06T18:29:46.000Z</time>
      </trkpt>
      <trkpt lat="43.31515" lon="-1.49335">
        <ele>101</ele>
        <time>2026-03-06T18:29:46.000Z</time>
      </trkpt>
      <trkpt lat="43.31534" lon="-1.49304">
        <ele>102</ele>
        <time>2026-03-06T18:29:51.000Z</time>
      </trkpt>
      <trkpt lat="43.31554" lon="-1.49261">
        <ele>103</ele>
        <time>2026-03-06T18:29:58.000Z</time>
      </trkpt>
      <trkpt lat="43.31645" lon="-1.49023">
        <ele>107</ele>
        <time>2026-03-06T18:30:33.000Z</time>
      </trkpt>
      <trkpt lat="43.31656" lon="-1.48998">
        <ele>108</ele>
        <time>2026-03-06T18:30:36.000Z</time>
      </trkpt>
      <trkpt lat="43.31666" lon="-1.48984">
        <ele>108</ele>
        <time>2026-03-06T18:30:39.000Z</time>
      </trkpt>
      <trkpt lat="43.31683" lon="-1.48967">
        <ele>110</ele>
        <time>2026-03-06T18:30:43.000Z</time>
      </trkpt>
      <trkpt lat="43.31729" lon="-1.4893">
        <ele>112</ele>
        <time>2026-03-06T18:30:52.000Z</time>
      </trkpt>
      <trkpt lat="43.31751" lon="-1.48906">
        <ele>112</ele>
        <time>2026-03-06T18:30:57.000Z</time>
      </trkpt>
      <trkpt lat="43.31805" lon="-1.4883">
        <ele>115</ele>
        <time>2026-03-06T18:31:11.000Z</time>
      </trkpt>
      <trkpt lat="43.31849" lon="-1.48752">
        <ele>117</ele>
        <time>2026-03-06T18:31:24.000Z</time>
      </trkpt>
      <trkpt lat="43.31871" lon="-1.48723">
        <ele>120</ele>
        <time>2026-03-06T18:31:29.000Z</time>
      </trkpt>
      <trkpt lat="43.31887" lon="-1.48709">
        <ele>122</ele>
        <time>2026-03-06T18:31:33.000Z</time>
      </trkpt>
      <trkpt lat="43.31968" lon="-1.48653">
        <ele>127</ele>
        <time>2026-03-06T18:31:49.000Z</time>
      </trkpt>
      <trkpt lat="43.31989" lon="-1.48637">
        <ele>128</ele>
        <time>2026-03-06T18:31:53.000Z</time>
      </trkpt>
      <trkpt lat="43.32011" lon="-1.48613">
        <ele>130</ele>
        <time>2026-03-06T18:31:58.000Z</time>
      </trkpt>
      <trkpt lat="43.32029" lon="-1.4859">
        <ele>132</ele>
        <time>2026-03-06T18:32:02.000Z</time>
      </trkpt>
      <trkpt lat="43.32051" lon="-1.48556">
        <ele>135</ele>
        <time>2026-03-06T18:32:08.000Z</time>
      </trkpt>
      <trkpt lat="43.32086" lon="-1.48499">
        <ele>137</ele>
        <time>2026-03-06T18:32:18.000Z</time>
      </trkpt>
      <trkpt lat="43.32141" lon="-1.48391">
        <ele>146</ele>
        <time>2026-03-06T18:32:35.000Z</time>
      </trkpt>
      <trkpt lat="43.32177" lon="-1.48307">
        <ele>146</ele>
        <time>2026-03-06T18:32:48.000Z</time>
      </trkpt>
      <trkpt lat="43.32186" lon="-1.48282">
        <ele>149</ele>
        <time>2026-03-06T18:32:51.000Z</time>
      </trkpt>
      <trkpt lat="43.32202" lon="-1.48227">
        <ele>149</ele>
        <time>2026-03-06T18:32:59.000Z</time>
      </trkpt>
      <trkpt lat="43.32208" lon="-1.48214">
        <ele>148</ele>
        <time>2026-03-06T18:33:01.000Z</time>
      </trkpt>
      <trkpt lat="43.32221" lon="-1.48194">
        <ele>146</ele>
        <time>2026-03-06T18:33:04.000Z</time>
      </trkpt>
      <trkpt lat="43.32272" lon="-1.48128">
        <ele>149</ele>
        <time>2026-03-06T18:33:17.000Z</time>
      </trkpt>
      <trkpt lat="43.3229" lon="-1.48106">
        <ele>151</ele>
        <time>2026-03-06T18:33:21.000Z</time>
      </trkpt>
      <trkpt lat="43.32312" lon="-1.48087">
        <ele>152</ele>
        <time>2026-03-06T18:33:26.000Z</time>
      </trkpt>
      <trkpt lat="43.32366" lon="-1.4805">
        <ele>154</ele>
        <time>2026-03-06T18:33:36.000Z</time>
      </trkpt>
      <trkpt lat="43.32384" lon="-1.4803">
        <ele>155</ele>
        <time>2026-03-06T18:33:40.000Z</time>
      </trkpt>
      <trkpt lat="43.32402" lon="-1.47996">
        <ele>154</ele>
        <time>2026-03-06T18:33:46.000Z</time>
      </trkpt>
      <trkpt lat="43.32467" lon="-1.47857">
        <ele>161</ele>
        <time>2026-03-06T18:34:07.000Z</time>
      </trkpt>
      <trkpt lat="43.32533" lon="-1.47724">
        <ele>162</ele>
        <time>2026-03-06T18:34:28.000Z</time>
      </trkpt>
      <trkpt lat="43.32549" lon="-1.47699">
        <ele>163</ele>
        <time>2026-03-06T18:34:32.000Z</time>
      </trkpt>
      <trkpt lat="43.32583" lon="-1.47661">
        <ele>164</ele>
        <time>2026-03-06T18:34:40.000Z</time>
      </trkpt>
      <trkpt lat="43.32602" lon="-1.47637">
        <ele>166</ele>
        <time>2026-03-06T18:34:45.000Z</time>
      </trkpt>
      <trkpt lat="43.32678" lon="-1.475">
        <ele>170</ele>
        <time>2026-03-06T18:35:07.000Z</time>
      </trkpt>
      <trkpt lat="43.32699" lon="-1.47464">
        <ele>173</ele>
        <time>2026-03-06T18:35:13.000Z</time>
      </trkpt>
      <trkpt lat="43.32715" lon="-1.47447">
        <ele>174</ele>
        <time>2026-03-06T18:35:17.000Z</time>
      </trkpt>
      <trkpt lat="43.3273" lon="-1.47439">
        <ele>175</ele>
        <time>2026-03-06T18:35:20.000Z</time>
      </trkpt>
      <trkpt lat="43.32766" lon="-1.47426">
        <ele>175</ele>
        <time>2026-03-06T18:35:26.000Z</time>
      </trkpt>
      <trkpt lat="43.32757" lon="-1.47404">
        <ele>177</ele>
        <time>2026-03-06T18:35:29.000Z</time>
      </trkpt>
      <trkpt lat="43.3266" lon="-1.47236">
        <ele>193</ele>
        <time>2026-03-06T18:35:57.000Z</time>
      </trkpt>
      <trkpt lat="43.32627" lon="-1.47228">
        <ele>193</ele>
        <time>2026-03-06T18:36:03.000Z</time>
      </trkpt>
      <trkpt lat="43.32562" lon="-1.47187">
        <ele>192</ele>
        <time>2026-03-06T18:36:16.000Z</time>
      </trkpt>
      <trkpt lat="43.32549" lon="-1.47176">
        <ele>192</ele>
        <time>2026-03-06T18:36:19.000Z</time>
      </trkpt>
      <trkpt lat="43.32519" lon="-1.47127">
        <ele>189</ele>
        <time>2026-03-06T18:36:27.000Z</time>
      </trkpt>
      <trkpt lat="43.32472" lon="-1.47081">
        <ele>185</ele>
        <time>2026-03-06T18:36:37.000Z</time>
      </trkpt>
      <trkpt lat="43.32452" lon="-1.47068">
        <ele>186</ele>
        <time>2026-03-06T18:36:41.000Z</time>
      </trkpt>
      <trkpt lat="43.32435" lon="-1.47063">
        <ele>187</ele>
        <time>2026-03-06T18:36:44.000Z</time>
      </trkpt>
      <trkpt lat="43.3242" lon="-1.47065">
        <ele>189</ele>
        <time>2026-03-06T18:36:47.000Z</time>
      </trkpt>
      <trkpt lat="43.32393" lon="-1.47075">
        <ele>190</ele>
        <time>2026-03-06T18:36:52.000Z</time>
      </trkpt>
      <trkpt lat="43.32375" lon="-1.47087">
        <ele>191</ele>
        <time>2026-03-06T18:36:55.000Z</time>
      </trkpt>
      <trkpt lat="43.32317" lon="-1.47133">
        <ele>195</ele>
        <time>2026-03-06T18:37:07.000Z</time>
      </trkpt>
      <trkpt lat="43.32288" lon="-1.47159">
        <ele>197</ele>
        <time>2026-03-06T18:37:14.000Z</time>
      </trkpt>
      <trkpt lat="43.32253" lon="-1.47179">
        <ele>197</ele>
        <time>2026-03-06T18:37:20.000Z</time>
      </trkpt>
      <trkpt lat="43.32233" lon="-1.47183">
        <ele>199</ele>
        <time>2026-03-06T18:37:24.000Z</time>
      </trkpt>
      <trkpt lat="43.32218" lon="-1.47193">
        <ele>202</ele>
        <time>2026-03-06T18:37:27.000Z</time>
      </trkpt>
      <trkpt lat="43.32193" lon="-1.47218">
        <ele>205</ele>
        <time>2026-03-06T18:37:32.000Z</time>
      </trkpt>
      <trkpt lat="43.3218" lon="-1.47238">
        <ele>205</ele>
        <time>2026-03-06T18:37:36.000Z</time>
      </trkpt>
      <trkpt lat="43.32169" lon="-1.47248">
        <ele>206</ele>
        <time>2026-03-06T18:37:38.000Z</time>
      </trkpt>
      <trkpt lat="43.32152" lon="-1.47258">
        <ele>208</ele>
        <time>2026-03-06T18:37:41.000Z</time>
      </trkpt>
      <trkpt lat="43.32139" lon="-1.47259">
        <ele>210</ele>
        <time>2026-03-06T18:37:44.000Z</time>
      </trkpt>
      <trkpt lat="43.3211" lon="-1.47269">
        <ele>215</ele>
        <time>2026-03-06T18:37:49.000Z</time>
      </trkpt>
      <trkpt lat="43.32051" lon="-1.47277">
        <ele>224</ele>
        <time>2026-03-06T18:38:00.000Z</time>
      </trkpt>
      <trkpt lat="43.3203" lon="-1.47278">
        <ele>227</ele>
        <time>2026-03-06T18:38:03.000Z</time>
      </trkpt>
      <trkpt lat="43.32024" lon="-1.47274">
        <ele>227</ele>
        <time>2026-03-06T18:38:05.000Z</time>
      </trkpt>
      <trkpt lat="43.32024" lon="-1.47268">
        <ele>226</ele>
        <time>2026-03-06T18:38:05.000Z</time>
      </trkpt>
      <trkpt lat="43.32027" lon="-1.47263">
        <ele>225</ele>
        <time>2026-03-06T18:38:06.000Z</time>
      </trkpt>
      <trkpt lat="43.3208" lon="-1.47206">
        <ele>219</ele>
        <time>2026-03-06T18:38:18.000Z</time>
      </trkpt>
      <trkpt lat="43.32091" lon="-1.4719">
        <ele>219</ele>
        <time>2026-03-06T18:38:21.000Z</time>
      </trkpt>
      <trkpt lat="43.32107" lon="-1.4715">
        <ele>221</ele>
        <time>2026-03-06T18:38:27.000Z</time>
      </trkpt>
      <trkpt lat="43.32115" lon="-1.47138">
        <ele>222</ele>
        <time>2026-03-06T18:38:29.000Z</time>
      </trkpt>
      <trkpt lat="43.32128" lon="-1.47126">
        <ele>222</ele>
        <time>2026-03-06T18:38:32.000Z</time>
      </trkpt>
      <trkpt lat="43.32143" lon="-1.47115">
        <ele>222</ele>
        <time>2026-03-06T18:38:35.000Z</time>
      </trkpt>
      <trkpt lat="43.32189" lon="-1.47088">
        <ele>218</ele>
        <time>2026-03-06T18:38:44.000Z</time>
      </trkpt>
      <trkpt lat="43.32199" lon="-1.47074">
        <ele>219</ele>
        <time>2026-03-06T18:38:46.000Z</time>
      </trkpt>
      <trkpt lat="43.32205" lon="-1.4706">
        <ele>220</ele>
        <time>2026-03-06T18:38:48.000Z</time>
      </trkpt>
      <trkpt lat="43.3221" lon="-1.4704">
        <ele>222</ele>
        <time>2026-03-06T18:38:51.000Z</time>
      </trkpt>
      <trkpt lat="43.3221" lon="-1.4702">
        <ele>225</ele>
        <time>2026-03-06T18:38:54.000Z</time>
      </trkpt>
      <trkpt lat="43.32205" lon="-1.46942">
        <ele>231</ele>
        <time>2026-03-06T18:39:04.000Z</time>
      </trkpt>
      <trkpt lat="43.32199" lon="-1.46903">
        <ele>233</ele>
        <time>2026-03-06T18:39:09.000Z</time>
      </trkpt>
      <trkpt lat="43.32191" lon="-1.46881">
        <ele>233</ele>
        <time>2026-03-06T18:39:12.000Z</time>
      </trkpt>
      <trkpt lat="43.32174" lon="-1.46852">
        <ele>235</ele>
        <time>2026-03-06T18:39:17.000Z</time>
      </trkpt>
      <trkpt lat="43.32147" lon="-1.46816">
        <ele>236</ele>
        <time>2026-03-06T18:39:24.000Z</time>
      </trkpt>
      <trkpt lat="43.32126" lon="-1.46795">
        <ele>237</ele>
        <time>2026-03-06T18:39:28.000Z</time>
      </trkpt>
      <trkpt lat="43.32085" lon="-1.46769">
        <ele>240</ele>
        <time>2026-03-06T18:39:36.000Z</time>
      </trkpt>
      <trkpt lat="43.32049" lon="-1.46738">
        <ele>239</ele>
        <time>2026-03-06T18:39:44.000Z</time>
      </trkpt>
      <trkpt lat="43.32018" lon="-1.46718">
        <ele>237</ele>
        <time>2026-03-06T18:39:50.000Z</time>
      </trkpt>
      <trkpt lat="43.32008" lon="-1.4671">
        <ele>236</ele>
        <time>2026-03-06T18:39:52.000Z</time>
      </trkpt>
      <trkpt lat="43.31917" lon="-1.46678">
        <ele>235</ele>
        <time>2026-03-06T18:40:09.000Z</time>
      </trkpt>
      <trkpt lat="43.31909" lon="-1.46669">
        <ele>235</ele>
        <time>2026-03-06T18:40:11.000Z</time>
      </trkpt>
      <trkpt lat="43.31899" lon="-1.46651">
        <ele>234</ele>
        <time>2026-03-06T18:40:14.000Z</time>
      </trkpt>
      <trkpt lat="43.31889" lon="-1.46607">
        <ele>229</ele>
        <time>2026-03-06T18:40:19.000Z</time>
      </trkpt>
      <trkpt lat="43.3188" lon="-1.4659">
        <ele>227</ele>
        <time>2026-03-06T18:40:22.000Z</time>
      </trkpt>
      <trkpt lat="43.31856" lon="-1.46567">
        <ele>226</ele>
        <time>2026-03-06T18:40:27.000Z</time>
      </trkpt>
      <trkpt lat="43.31793" lon="-1.46518">
        <ele>220</ele>
        <time>2026-03-06T18:40:40.000Z</time>
      </trkpt>
      <trkpt lat="43.31738" lon="-1.46513">
        <ele>223</ele>
        <time>2026-03-06T18:40:50.000Z</time>
      </trkpt>
      <trkpt lat="43.31679" lon="-1.46553">
        <ele>232</ele>
        <time>2026-03-06T18:41:02.000Z</time>
      </trkpt>
      <trkpt lat="43.31644" lon="-1.4658">
        <ele>237</ele>
        <time>2026-03-06T18:41:09.000Z</time>
      </trkpt>
      <trkpt lat="43.31622" lon="-1.46566">
        <ele>237</ele>
        <time>2026-03-06T18:41:13.000Z</time>
      </trkpt>
      <trkpt lat="43.31611" lon="-1.4655">
        <ele>237</ele>
        <time>2026-03-06T18:41:16.000Z</time>
      </trkpt>
      <trkpt lat="43.31607" lon="-1.46506">
        <ele>236</ele>
        <time>2026-03-06T18:41:22.000Z</time>
      </trkpt>
      <trkpt lat="43.31625" lon="-1.46475">
        <ele>237</ele>
        <time>2026-03-06T18:41:27.000Z</time>
      </trkpt>
      <trkpt lat="43.31709" lon="-1.4642">
        <ele>232</ele>
        <time>2026-03-06T18:41:44.000Z</time>
      </trkpt>
      <trkpt lat="43.31809" lon="-1.46361">
        <ele>225</ele>
        <time>2026-03-06T18:42:03.000Z</time>
      </trkpt>
      <trkpt lat="43.31862" lon="-1.4627">
        <ele>238</ele>
        <time>2026-03-06T18:42:18.000Z</time>
      </trkpt>
      <trkpt lat="43.31876" lon="-1.46221">
        <ele>238</ele>
        <time>2026-03-06T18:42:25.000Z</time>
      </trkpt>
      <trkpt lat="43.31882" lon="-1.46044">
        <ele>242</ele>
        <time>2026-03-06T18:42:48.000Z</time>
      </trkpt>
      <trkpt lat="43.3188" lon="-1.4598">
        <ele>242</ele>
        <time>2026-03-06T18:42:56.000Z</time>
      </trkpt>
      <trkpt lat="43.31887" lon="-1.45958">
        <ele>241</ele>
        <time>2026-03-06T18:42:59.000Z</time>
      </trkpt>
      <trkpt lat="43.31903" lon="-1.45925">
        <ele>240</ele>
        <time>2026-03-06T18:43:04.000Z</time>
      </trkpt>
      <trkpt lat="43.31887" lon="-1.45923">
        <ele>240</ele>
        <time>2026-03-06T18:43:07.000Z</time>
      </trkpt>
      <trkpt lat="43.31851" lon="-1.45936">
        <ele>240</ele>
        <time>2026-03-06T18:43:14.000Z</time>
      </trkpt>
      <trkpt lat="43.31801" lon="-1.4596">
        <ele>239</ele>
        <time>2026-03-06T18:43:23.000Z</time>
      </trkpt>
      <trkpt lat="43.31781" lon="-1.45949">
        <ele>237</ele>
        <time>2026-03-06T18:43:27.000Z</time>
      </trkpt>
      <trkpt lat="43.3177" lon="-1.45945">
        <ele>235</ele>
        <time>2026-03-06T18:43:29.000Z</time>
      </trkpt>
      <trkpt lat="43.31755" lon="-1.45947">
        <ele>234</ele>
        <time>2026-03-06T18:43:32.000Z</time>
      </trkpt>
      <trkpt lat="43.31685" lon="-1.4598">
        <ele>235</ele>
        <time>2026-03-06T18:43:45.000Z</time>
      </trkpt>
      <trkpt lat="43.31666" lon="-1.45972">
        <ele>232</ele>
        <time>2026-03-06T18:43:48.000Z</time>
      </trkpt>
      <trkpt lat="43.31635" lon="-1.45928">
        <ele>221</ele>
        <time>2026-03-06T18:43:56.000Z</time>
      </trkpt>
      <trkpt lat="43.31624" lon="-1.4586">
        <ele>208</ele>
        <time>2026-03-06T18:44:05.000Z</time>
      </trkpt>
      <trkpt lat="43.31613" lon="-1.45837">
        <ele>203</ele>
        <time>2026-03-06T18:44:09.000Z</time>
      </trkpt>
      <trkpt lat="43.31602" lon="-1.45824">
        <ele>200</ele>
        <time>2026-03-06T18:44:12.000Z</time>
      </trkpt>
      <trkpt lat="43.31564" lon="-1.45788">
        <ele>193</ele>
        <time>2026-03-06T18:44:20.000Z</time>
      </trkpt>
      <trkpt lat="43.31547" lon="-1.45762">
        <ele>187</ele>
        <time>2026-03-06T18:44:24.000Z</time>
      </trkpt>
      <trkpt lat="43.31488" lon="-1.45662">
        <ele>173</ele>
        <time>2026-03-06T18:44:41.000Z</time>
      </trkpt>
      <trkpt lat="43.31478" lon="-1.45651">
        <ele>172</ele>
        <time>2026-03-06T18:44:43.000Z</time>
      </trkpt>
      <trkpt lat="43.31478" lon="-1.45651">
        <ele>172</ele>
        <time>2026-03-06T18:44:43.000Z</time>
      </trkpt>
      <trkpt lat="43.3147" lon="-1.45643">
        <ele>171</ele>
        <time>2026-03-06T18:44:45.000Z</time>
      </trkpt>
      <trkpt lat="43.31412" lon="-1.45618">
        <ele>167</ele>
        <time>2026-03-06T18:44:56.000Z</time>
      </trkpt>
      <trkpt lat="43.31391" lon="-1.45601">
        <ele>165</ele>
        <time>2026-03-06T18:45:00.000Z</time>
      </trkpt>
      <trkpt lat="43.31364" lon="-1.45551">
        <ele>160</ele>
        <time>2026-03-06T18:45:08.000Z</time>
      </trkpt>
      <trkpt lat="43.31353" lon="-1.45521">
        <ele>157</ele>
        <time>2026-03-06T18:45:13.000Z</time>
      </trkpt>
      <trkpt lat="43.3135" lon="-1.45499">
        <ele>155</ele>
        <time>2026-03-06T18:45:15.000Z</time>
      </trkpt>
      <trkpt lat="43.31353" lon="-1.45473">
        <ele>154</ele>
        <time>2026-03-06T18:45:19.000Z</time>
      </trkpt>
      <trkpt lat="43.31361" lon="-1.45444">
        <ele>152</ele>
        <time>2026-03-06T18:45:23.000Z</time>
      </trkpt>
      <trkpt lat="43.31378" lon="-1.45417">
        <ele>151</ele>
        <time>2026-03-06T18:45:27.000Z</time>
      </trkpt>
      <trkpt lat="43.31394" lon="-1.45397">
        <ele>149</ele>
        <time>2026-03-06T18:45:31.000Z</time>
      </trkpt>
      <trkpt lat="43.31418" lon="-1.45377">
        <ele>147</ele>
        <time>2026-03-06T18:45:36.000Z</time>
      </trkpt>
      <trkpt lat="43.31435" lon="-1.45357">
        <ele>145</ele>
        <time>2026-03-06T18:45:40.000Z</time>
      </trkpt>
      <trkpt lat="43.3145" lon="-1.45332">
        <ele>143</ele>
        <time>2026-03-06T18:45:44.000Z</time>
      </trkpt>
      <trkpt lat="43.31477" lon="-1.4526">
        <ele>137</ele>
        <time>2026-03-06T18:45:55.000Z</time>
      </trkpt>
      <trkpt lat="43.31499" lon="-1.45219">
        <ele>135</ele>
        <time>2026-03-06T18:46:02.000Z</time>
      </trkpt>
      <trkpt lat="43.3153" lon="-1.45191">
        <ele>134</ele>
        <time>2026-03-06T18:46:08.000Z</time>
      </trkpt>
      <trkpt lat="43.31546" lon="-1.45185">
        <ele>132</ele>
        <time>2026-03-06T18:46:11.000Z</time>
      </trkpt>
      <trkpt lat="43.31572" lon="-1.45187">
        <ele>130</ele>
        <time>2026-03-06T18:46:16.000Z</time>
      </trkpt>
      <trkpt lat="43.31602" lon="-1.45173">
        <ele>125</ele>
        <time>2026-03-06T18:46:21.000Z</time>
      </trkpt>
      <trkpt lat="43.31614" lon="-1.45171">
        <ele>124</ele>
        <time>2026-03-06T18:46:24.000Z</time>
      </trkpt>
      <trkpt lat="43.3167" lon="-1.45194">
        <ele>123</ele>
        <time>2026-03-06T18:46:34.000Z</time>
      </trkpt>
      <trkpt lat="43.31681" lon="-1.45194">
        <ele>124</ele>
        <time>2026-03-06T18:46:36.000Z</time>
      </trkpt>
      <trkpt lat="43.31724" lon="-1.45173">
        <ele>122</ele>
        <time>2026-03-06T18:46:44.000Z</time>
      </trkpt>
      <trkpt lat="43.31776" lon="-1.45153">
        <ele>120</ele>
        <time>2026-03-06T18:46:54.000Z</time>
      </trkpt>
      <trkpt lat="43.318" lon="-1.4515">
        <ele>119</ele>
        <time>2026-03-06T18:46:58.000Z</time>
      </trkpt>
      <trkpt lat="43.31828" lon="-1.45131">
        <ele>116</ele>
        <time>2026-03-06T18:47:03.000Z</time>
      </trkpt>
      <trkpt lat="43.31848" lon="-1.45111">
        <ele>113</ele>
        <time>2026-03-06T18:47:08.000Z</time>
      </trkpt>
      <trkpt lat="43.31861" lon="-1.45103">
        <ele>112</ele>
        <time>2026-03-06T18:47:10.000Z</time>
      </trkpt>
      <trkpt lat="43.31938" lon="-1.45068">
        <ele>110</ele>
        <time>2026-03-06T18:47:25.000Z</time>
      </trkpt>
      <trkpt lat="43.3196" lon="-1.45067">
        <ele>110</ele>
        <time>2026-03-06T18:47:29.000Z</time>
      </trkpt>
      <trkpt lat="43.31995" lon="-1.45078">
        <ele>110</ele>
        <time>2026-03-06T18:47:35.000Z</time>
      </trkpt>
      <trkpt lat="43.32042" lon="-1.45079">
        <ele>109</ele>
        <time>2026-03-06T18:47:44.000Z</time>
      </trkpt>
      <trkpt lat="43.32087" lon="-1.45096">
        <ele>110</ele>
        <time>2026-03-06T18:47:52.000Z</time>
      </trkpt>
      <trkpt lat="43.32127" lon="-1.45079">
        <ele>113</ele>
        <time>2026-03-06T18:47:59.000Z</time>
      </trkpt>
      <trkpt lat="43.3216" lon="-1.45049">
        <ele>113</ele>
        <time>2026-03-06T18:48:06.000Z</time>
      </trkpt>
      <trkpt lat="43.32197" lon="-1.45032">
        <ele>113</ele>
        <time>2026-03-06T18:48:13.000Z</time>
      </trkpt>
      <trkpt lat="43.32258" lon="-1.44996">
        <ele>108</ele>
        <time>2026-03-06T18:48:25.000Z</time>
      </trkpt>
      <trkpt lat="43.32283" lon="-1.4499">
        <ele>109</ele>
        <time>2026-03-06T18:48:30.000Z</time>
      </trkpt>
      <trkpt lat="43.32303" lon="-1.44973">
        <ele>108</ele>
        <time>2026-03-06T18:48:34.000Z</time>
      </trkpt>
      <trkpt lat="43.32336" lon="-1.44948">
        <ele>108</ele>
        <time>2026-03-06T18:48:40.000Z</time>
      </trkpt>
      <trkpt lat="43.32363" lon="-1.44934">
        <ele>108</ele>
        <time>2026-03-06T18:48:46.000Z</time>
      </trkpt>
      <trkpt lat="43.32451" lon="-1.44915">
        <ele>114</ele>
        <time>2026-03-06T18:49:01.000Z</time>
      </trkpt>
      <trkpt lat="43.32524" lon="-1.44864">
        <ele>113</ele>
        <time>2026-03-06T18:49:16.000Z</time>
      </trkpt>
      <trkpt lat="43.32613" lon="-1.44837">
        <ele>109</ele>
        <time>2026-03-06T18:49:32.000Z</time>
      </trkpt>
      <trkpt lat="43.3263" lon="-1.44834">
        <ele>106</ele>
        <time>2026-03-06T18:49:35.000Z</time>
      </trkpt>
      <trkpt lat="43.32659" lon="-1.44839">
        <ele>106</ele>
        <time>2026-03-06T18:49:40.000Z</time>
      </trkpt>
      <trkpt lat="43.32688" lon="-1.44841">
        <ele>104</ele>
        <time>2026-03-06T18:49:46.000Z</time>
      </trkpt>
      <trkpt lat="43.32666" lon="-1.4481">
        <ele>101</ele>
        <time>2026-03-06T18:49:51.000Z</time>
      </trkpt>
      <trkpt lat="43.32654" lon="-1.44801">
        <ele>101</ele>
        <time>2026-03-06T18:49:54.000Z</time>
      </trkpt>
      <trkpt lat="43.32607" lon="-1.44782">
        <ele>98</ele>
        <time>2026-03-06T18:50:02.000Z</time>
      </trkpt>
      <trkpt lat="43.32598" lon="-1.44773">
        <ele>97</ele>
        <time>2026-03-06T18:50:04.000Z</time>
      </trkpt>
      <trkpt lat="43.32591" lon="-1.44759">
        <ele>93</ele>
        <time>2026-03-06T18:50:07.000Z</time>
      </trkpt>
      <trkpt lat="43.3259" lon="-1.44752">
        <ele>92</ele>
        <time>2026-03-06T18:50:07.000Z</time>
      </trkpt>
      <trkpt lat="43.3259" lon="-1.44752">
        <ele>92</ele>
        <time>2026-03-06T18:50:07.000Z</time>
      </trkpt>
      <trkpt lat="43.3255" lon="-1.44575">
        <ele>103</ele>
        <time>2026-03-06T18:50:31.000Z</time>
      </trkpt>
      <trkpt lat="43.3254" lon="-1.44495">
        <ele>109</ele>
        <time>2026-03-06T18:50:42.000Z</time>
      </trkpt>
      <trkpt lat="43.3253" lon="-1.44437">
        <ele>109</ele>
        <time>2026-03-06T18:50:50.000Z</time>
      </trkpt>
      <trkpt lat="43.32499" lon="-1.44346">
        <ele>107</ele>
        <time>2026-03-06T18:51:03.000Z</time>
      </trkpt>
      <trkpt lat="43.32498" lon="-1.44333">
        <ele>106</ele>
        <time>2026-03-06T18:51:04.000Z</time>
      </trkpt>
      <trkpt lat="43.325" lon="-1.44321">
        <ele>106</ele>
        <time>2026-03-06T18:51:06.000Z</time>
      </trkpt>
      <trkpt lat="43.32508" lon="-1.44299">
        <ele>106</ele>
        <time>2026-03-06T18:51:09.000Z</time>
      </trkpt>
      <trkpt lat="43.32514" lon="-1.44272">
        <ele>107</ele>
        <time>2026-03-06T18:51:13.000Z</time>
      </trkpt>
      <trkpt lat="43.32515" lon="-1.44206">
        <ele>110</ele>
        <time>2026-03-06T18:51:21.000Z</time>
      </trkpt>
      <trkpt lat="43.32519" lon="-1.44179">
        <ele>112</ele>
        <time>2026-03-06T18:51:25.000Z</time>
      </trkpt>
      <trkpt lat="43.32541" lon="-1.44103">
        <ele>118</ele>
        <time>2026-03-06T18:51:36.000Z</time>
      </trkpt>
      <trkpt lat="43.32551" lon="-1.44021">
        <ele>123</ele>
        <time>2026-03-06T18:51:46.000Z</time>
      </trkpt>
      <trkpt lat="43.32566" lon="-1.43939">
        <ele>121</ele>
        <time>2026-03-06T18:51:57.000Z</time>
      </trkpt>
      <trkpt lat="43.32573" lon="-1.43916">
        <ele>119</ele>
        <time>2026-03-06T18:52:00.000Z</time>
      </trkpt>
      <trkpt lat="43.32581" lon="-1.43899">
        <ele>119</ele>
        <time>2026-03-06T18:52:03.000Z</time>
      </trkpt>
      <trkpt lat="43.32601" lon="-1.43873">
        <ele>122</ele>
        <time>2026-03-06T18:52:08.000Z</time>
      </trkpt>
      <trkpt lat="43.32667" lon="-1.43816">
        <ele>127</ele>
        <time>2026-03-06T18:52:22.000Z</time>
      </trkpt>
      <trkpt lat="43.32684" lon="-1.43792">
        <ele>130</ele>
        <time>2026-03-06T18:52:26.000Z</time>
      </trkpt>
      <trkpt lat="43.32697" lon="-1.43765">
        <ele>133</ele>
        <time>2026-03-06T18:52:30.000Z</time>
      </trkpt>
      <trkpt lat="43.32709" lon="-1.43721">
        <ele>134</ele>
        <time>2026-03-06T18:52:36.000Z</time>
      </trkpt>
      <trkpt lat="43.32717" lon="-1.43706">
        <ele>134</ele>
        <time>2026-03-06T18:52:39.000Z</time>
      </trkpt>
      <trkpt lat="43.32727" lon="-1.43693">
        <ele>134</ele>
        <time>2026-03-06T18:52:41.000Z</time>
      </trkpt>
      <trkpt lat="43.32773" lon="-1.43645">
        <ele>134</ele>
        <time>2026-03-06T18:52:52.000Z</time>
      </trkpt>
      <trkpt lat="43.32816" lon="-1.4361">
        <ele>132</ele>
        <time>2026-03-06T18:53:00.000Z</time>
      </trkpt>
      <trkpt lat="43.32823" lon="-1.43597">
        <ele>131</ele>
        <time>2026-03-06T18:53:03.000Z</time>
      </trkpt>
      <trkpt lat="43.32827" lon="-1.43572">
        <ele>129</ele>
        <time>2026-03-06T18:53:06.000Z</time>
      </trkpt>
      <trkpt lat="43.32826" lon="-1.43541">
        <ele>127</ele>
        <time>2026-03-06T18:53:10.000Z</time>
      </trkpt>
      <trkpt lat="43.32809" lon="-1.43469">
        <ele>122</ele>
        <time>2026-03-06T18:53:20.000Z</time>
      </trkpt>
      <trkpt lat="43.32805" lon="-1.43442">
        <ele>121</ele>
        <time>2026-03-06T18:53:23.000Z</time>
      </trkpt>
      <trkpt lat="43.32808" lon="-1.4341">
        <ele>120</ele>
        <time>2026-03-06T18:53:27.000Z</time>
      </trkpt>
      <trkpt lat="43.32822" lon="-1.43333">
        <ele>117</ele>
        <time>2026-03-06T18:53:38.000Z</time>
      </trkpt>
      <trkpt lat="43.32838" lon="-1.43202">
        <ele>115</ele>
        <time>2026-03-06T18:53:55.000Z</time>
      </trkpt>
      <trkpt lat="43.32849" lon="-1.43166">
        <ele>113</ele>
        <time>2026-03-06T18:54:00.000Z</time>
      </trkpt>
      <trkpt lat="43.32867" lon="-1.43125">
        <ele>113</ele>
        <time>2026-03-06T18:54:06.000Z</time>
      </trkpt>
      <trkpt lat="43.3289" lon="-1.43093">
        <ele>114</ele>
        <time>2026-03-06T18:54:12.000Z</time>
      </trkpt>
      <trkpt lat="43.329" lon="-1.43074">
        <ele>114</ele>
        <time>2026-03-06T18:54:15.000Z</time>
      </trkpt>
      <trkpt lat="43.329" lon="-1.43057">
        <ele>113</ele>
        <time>2026-03-06T18:54:17.000Z</time>
      </trkpt>
      <trkpt lat="43.32893" lon="-1.43006">
        <ele>111</ele>
        <time>2026-03-06T18:54:24.000Z</time>
      </trkpt>
      <trkpt lat="43.32892" lon="-1.42943">
        <ele>109</ele>
        <time>2026-03-06T18:54:32.000Z</time>
      </trkpt>
      <trkpt lat="43.32898" lon="-1.42917">
        <ele>108</ele>
        <time>2026-03-06T18:54:36.000Z</time>
      </trkpt>
      <trkpt lat="43.32927" lon="-1.42874">
        <ele>107</ele>
        <time>2026-03-06T18:54:43.000Z</time>
      </trkpt>
      <trkpt lat="43.32944" lon="-1.42845">
        <ele>106</ele>
        <time>2026-03-06T18:54:48.000Z</time>
      </trkpt>
      <trkpt lat="43.32985" lon="-1.42757">
        <ele>103</ele>
        <time>2026-03-06T18:55:02.000Z</time>
      </trkpt>
      <trkpt lat="43.32994" lon="-1.42742">
        <ele>102</ele>
        <time>2026-03-06T18:55:04.000Z</time>
      </trkpt>
      <trkpt lat="43.33005" lon="-1.42733">
        <ele>102</ele>
        <time>2026-03-06T18:55:06.000Z</time>
      </trkpt>
      <trkpt lat="43.33047" lon="-1.4271">
        <ele>107</ele>
        <time>2026-03-06T18:55:14.000Z</time>
      </trkpt>
      <trkpt lat="43.33056" lon="-1.427">
        <ele>107</ele>
        <time>2026-03-06T18:55:16.000Z</time>
      </trkpt>
      <trkpt lat="43.33076" lon="-1.4267">
        <ele>107</ele>
        <time>2026-03-06T18:55:22.000Z</time>
      </trkpt>
      <trkpt lat="43.33089" lon="-1.42634">
        <ele>105</ele>
        <time>2026-03-06T18:55:27.000Z</time>
      </trkpt>
      <trkpt lat="43.33094" lon="-1.4259">
        <ele>101</ele>
        <time>2026-03-06T18:55:33.000Z</time>
      </trkpt>
      <trkpt lat="43.331" lon="-1.42558">
        <ele>100</ele>
        <time>2026-03-06T18:55:37.000Z</time>
      </trkpt>
      <trkpt lat="43.33106" lon="-1.42542">
        <ele>100</ele>
        <time>2026-03-06T18:55:39.000Z</time>
      </trkpt>
      <trkpt lat="43.33131" lon="-1.42493">
        <ele>102</ele>
        <time>2026-03-06T18:55:47.000Z</time>
      </trkpt>
      <trkpt lat="43.33135" lon="-1.4248">
        <ele>102</ele>
        <time>2026-03-06T18:55:49.000Z</time>
      </trkpt>
      <trkpt lat="43.33137" lon="-1.42466">
        <ele>103</ele>
        <time>2026-03-06T18:55:51.000Z</time>
      </trkpt>
      <trkpt lat="43.33137" lon="-1.42316">
        <ele>102</ele>
        <time>2026-03-06T18:56:10.000Z</time>
      </trkpt>
      <trkpt lat="43.33146" lon="-1.42249">
        <ele>100</ele>
        <time>2026-03-06T18:56:19.000Z</time>
      </trkpt>
      <trkpt lat="43.33144" lon="-1.42181">
        <ele>96</ele>
        <time>2026-03-06T18:56:28.000Z</time>
      </trkpt>
      <trkpt lat="43.33148" lon="-1.42151">
        <ele>95</ele>
        <time>2026-03-06T18:56:32.000Z</time>
      </trkpt>
      <trkpt lat="43.33155" lon="-1.42124">
        <ele>95</ele>
        <time>2026-03-06T18:56:35.000Z</time>
      </trkpt>
      <trkpt lat="43.33162" lon="-1.42102">
        <ele>95</ele>
        <time>2026-03-06T18:56:39.000Z</time>
      </trkpt>
      <trkpt lat="43.33258" lon="-1.41942">
        <ele>103</ele>
        <time>2026-03-06T18:57:05.000Z</time>
      </trkpt>
      <trkpt lat="43.33268" lon="-1.41901">
        <ele>103</ele>
        <time>2026-03-06T18:57:11.000Z</time>
      </trkpt>
      <trkpt lat="43.33274" lon="-1.41869">
        <ele>102</ele>
        <time>2026-03-06T18:57:15.000Z</time>
      </trkpt>
      <trkpt lat="43.33275" lon="-1.41825">
        <ele>100</ele>
        <time>2026-03-06T18:57:21.000Z</time>
      </trkpt>
      <trkpt lat="43.33273" lon="-1.41795">
        <ele>99</ele>
        <time>2026-03-06T18:57:25.000Z</time>
      </trkpt>
      <trkpt lat="43.33264" lon="-1.41774">
        <ele>98</ele>
        <time>2026-03-06T18:57:28.000Z</time>
      </trkpt>
      <trkpt lat="43.33219" lon="-1.41732">
        <ele>96</ele>
        <time>2026-03-06T18:57:38.000Z</time>
      </trkpt>
      <trkpt lat="43.33201" lon="-1.41699">
        <ele>95</ele>
        <time>2026-03-06T18:57:43.000Z</time>
      </trkpt>
      <trkpt lat="43.33196" lon="-1.41681">
        <ele>94</ele>
        <time>2026-03-06T18:57:46.000Z</time>
      </trkpt>
      <trkpt lat="43.33203" lon="-1.41599">
        <ele>91</ele>
        <time>2026-03-06T18:57:56.000Z</time>
      </trkpt>
      <trkpt lat="43.33218" lon="-1.41508">
        <ele>87</ele>
        <time>2026-03-06T18:58:08.000Z</time>
      </trkpt>
      <trkpt lat="43.33226" lon="-1.41376">
        <ele>86</ele>
        <time>2026-03-06T18:58:25.000Z</time>
      </trkpt>
      <trkpt lat="43.3323" lon="-1.4135">
        <ele>87</ele>
        <time>2026-03-06T18:58:29.000Z</time>
      </trkpt>
      <trkpt lat="43.33237" lon="-1.41327">
        <ele>89</ele>
        <time>2026-03-06T18:58:32.000Z</time>
      </trkpt>
      <trkpt lat="43.33273" lon="-1.41277">
        <ele>93</ele>
        <time>2026-03-06T18:58:41.000Z</time>
      </trkpt>
      <trkpt lat="43.33281" lon="-1.41252">
        <ele>94</ele>
        <time>2026-03-06T18:58:45.000Z</time>
      </trkpt>
      <trkpt lat="43.33266" lon="-1.4109">
        <ele>90</ele>
        <time>2026-03-06T18:59:06.000Z</time>
      </trkpt>
      <trkpt lat="43.33263" lon="-1.40977">
        <ele>87</ele>
        <time>2026-03-06T18:59:20.000Z</time>
      </trkpt>
      <trkpt lat="43.33263" lon="-1.40977">
        <ele>87</ele>
        <time>2026-03-06T18:59:20.000Z</time>
      </trkpt>
      <trkpt lat="43.33266" lon="-1.4109">
        <ele>90</ele>
        <time>2026-03-06T18:59:35.000Z</time>
      </trkpt>
      <trkpt lat="43.33269" lon="-1.41134">
        <ele>91</ele>
        <time>2026-03-06T18:59:41.000Z</time>
      </trkpt>
      <trkpt lat="43.33276" lon="-1.41193">
        <ele>93</ele>
        <time>2026-03-06T18:59:49.000Z</time>
      </trkpt>
      <trkpt lat="43.33295" lon="-1.41213">
        <ele>93</ele>
        <time>2026-03-06T18:59:53.000Z</time>
      </trkpt>
      <trkpt lat="43.33345" lon="-1.41281">
        <ele>93</ele>
        <time>2026-03-06T19:00:05.000Z</time>
      </trkpt>
      <trkpt lat="43.33356" lon="-1.413">
        <ele>93</ele>
        <time>2026-03-06T19:00:08.000Z</time>
      </trkpt>
      <trkpt lat="43.33399" lon="-1.41406">
        <ele>93</ele>
        <time>2026-03-06T19:00:24.000Z</time>
      </trkpt>
      <trkpt lat="43.33399" lon="-1.41406">
        <ele>93</ele>
        <time>2026-03-06T19:00:24.000Z</time>
      </trkpt>
      <trkpt lat="43.33443" lon="-1.41503">
        <ele>99</ele>
        <time>2026-03-06T19:00:39.000Z</time>
      </trkpt>
      <trkpt lat="43.33481" lon="-1.41574">
        <ele>106</ele>
        <time>2026-03-06T19:00:50.000Z</time>
      </trkpt>
      <trkpt lat="43.33485" lon="-1.4159">
        <ele>107</ele>
        <time>2026-03-06T19:00:53.000Z</time>
      </trkpt>
      <trkpt lat="43.33483" lon="-1.41715">
        <ele>118</ele>
        <time>2026-03-06T19:01:09.000Z</time>
      </trkpt>
      <trkpt lat="43.33489" lon="-1.41727">
        <ele>121</ele>
        <time>2026-03-06T19:01:11.000Z</time>
      </trkpt>
      <trkpt lat="43.335" lon="-1.41733">
        <ele>124</ele>
        <time>2026-03-06T19:01:13.000Z</time>
      </trkpt>
      <trkpt lat="43.33605" lon="-1.4171">
        <ele>138</ele>
        <time>2026-03-06T19:01:32.000Z</time>
      </trkpt>
      <trkpt lat="43.33619" lon="-1.41721">
        <ele>142</ele>
        <time>2026-03-06T19:01:35.000Z</time>
      </trkpt>
      <trkpt lat="43.33622" lon="-1.41741">
        <ele>146</ele>
        <time>2026-03-06T19:01:37.000Z</time>
      </trkpt>
      <trkpt lat="43.33598" lon="-1.41857">
        <ele>156</ele>
        <time>2026-03-06T19:01:53.000Z</time>
      </trkpt>
      <trkpt lat="43.33571" lon="-1.4203">
        <ele>165</ele>
        <time>2026-03-06T19:02:16.000Z</time>
      </trkpt>
      <trkpt lat="43.33572" lon="-1.42092">
        <ele>168</ele>
        <time>2026-03-06T19:02:24.000Z</time>
      </trkpt>
      <trkpt lat="43.33572" lon="-1.42092">
        <ele>168</ele>
        <time>2026-03-06T19:02:24.000Z</time>
      </trkpt>
      <trkpt lat="43.33573" lon="-1.4213">
        <ele>169</ele>
        <time>2026-03-06T19:02:29.000Z</time>
      </trkpt>
      <trkpt lat="43.33582" lon="-1.4219">
        <ele>171</ele>
        <time>2026-03-06T19:02:37.000Z</time>
      </trkpt>
      <trkpt lat="43.33582" lon="-1.42233">
        <ele>172</ele>
        <time>2026-03-06T19:02:42.000Z</time>
      </trkpt>
      <trkpt lat="43.33577" lon="-1.42301">
        <ele>173</ele>
        <time>2026-03-06T19:02:51.000Z</time>
      </trkpt>
      <trkpt lat="43.3358" lon="-1.42342">
        <ele>175</ele>
        <time>2026-03-06T19:02:56.000Z</time>
      </trkpt>
      <trkpt lat="43.3358" lon="-1.4237">
        <ele>176</ele>
        <time>2026-03-06T19:03:00.000Z</time>
      </trkpt>
      <trkpt lat="43.3359" lon="-1.42419">
        <ele>177</ele>
        <time>2026-03-06T19:03:07.000Z</time>
      </trkpt>
      <trkpt lat="43.33584" lon="-1.42463">
        <ele>180</ele>
        <time>2026-03-06T19:03:12.000Z</time>
      </trkpt>
      <trkpt lat="43.33579" lon="-1.42479">
        <ele>181</ele>
        <time>2026-03-06T19:03:15.000Z</time>
      </trkpt>
      <trkpt lat="43.33555" lon="-1.42522">
        <ele>182</ele>
        <time>2026-03-06T19:03:22.000Z</time>
      </trkpt>
      <trkpt lat="43.3351" lon="-1.42624">
        <ele>184</ele>
        <time>2026-03-06T19:03:37.000Z</time>
      </trkpt>
      <trkpt lat="43.33426" lon="-1.4265">
        <ele>176</ele>
        <time>2026-03-06T19:03:52.000Z</time>
      </trkpt>
      <trkpt lat="43.33424" lon="-1.42665">
        <ele>176</ele>
        <time>2026-03-06T19:03:54.000Z</time>
      </trkpt>
      <trkpt lat="43.3341" lon="-1.42716">
        <ele>174</ele>
        <time>2026-03-06T19:04:01.000Z</time>
      </trkpt>
      <trkpt lat="43.33401" lon="-1.42739">
        <ele>173</ele>
        <time>2026-03-06T19:04:05.000Z</time>
      </trkpt>
      <trkpt lat="43.33391" lon="-1.42752">
        <ele>172</ele>
        <time>2026-03-06T19:04:07.000Z</time>
      </trkpt>
      <trkpt lat="43.3337" lon="-1.42766">
        <ele>171</ele>
        <time>2026-03-06T19:04:11.000Z</time>
      </trkpt>
      <trkpt lat="43.33349" lon="-1.42795">
        <ele>172</ele>
        <time>2026-03-06T19:04:17.000Z</time>
      </trkpt>
      <trkpt lat="43.33339" lon="-1.42815">
        <ele>174</ele>
        <time>2026-03-06T19:04:20.000Z</time>
      </trkpt>
      <trkpt lat="43.33299" lon="-1.42857">
        <ele>175</ele>
        <time>2026-03-06T19:04:29.000Z</time>
      </trkpt>
      <trkpt lat="43.33287" lon="-1.42902">
        <ele>181</ele>
        <time>2026-03-06T19:04:35.000Z</time>
      </trkpt>
      <trkpt lat="43.33287" lon="-1.42923">
        <ele>184</ele>
        <time>2026-03-06T19:04:38.000Z</time>
      </trkpt>
      <trkpt lat="43.33295" lon="-1.42972">
        <ele>188</ele>
        <time>2026-03-06T19:04:44.000Z</time>
      </trkpt>
      <trkpt lat="43.33305" lon="-1.43008">
        <ele>191</ele>
        <time>2026-03-06T19:04:49.000Z</time>
      </trkpt>
      <trkpt lat="43.33335" lon="-1.43098">
        <ele>198</ele>
        <time>2026-03-06T19:05:02.000Z</time>
      </trkpt>
      <trkpt lat="43.33345" lon="-1.43178">
        <ele>199</ele>
        <time>2026-03-06T19:05:12.000Z</time>
      </trkpt>
      <trkpt lat="43.33362" lon="-1.43275">
        <ele>194</ele>
        <time>2026-03-06T19:05:25.000Z</time>
      </trkpt>
      <trkpt lat="43.33364" lon="-1.43307">
        <ele>193</ele>
        <time>2026-03-06T19:05:30.000Z</time>
      </trkpt>
      <trkpt lat="43.33364" lon="-1.43364">
        <ele>189</ele>
        <time>2026-03-06T19:05:37.000Z</time>
      </trkpt>
      <trkpt lat="43.33333" lon="-1.43378">
        <ele>193</ele>
        <time>2026-03-06T19:05:43.000Z</time>
      </trkpt>
      <trkpt lat="43.33307" lon="-1.43439">
        <ele>189</ele>
        <time>2026-03-06T19:05:52.000Z</time>
      </trkpt>
      <trkpt lat="43.33289" lon="-1.43498">
        <ele>188</ele>
        <time>2026-03-06T19:06:00.000Z</time>
      </trkpt>
      <trkpt lat="43.33284" lon="-1.43528">
        <ele>187</ele>
        <time>2026-03-06T19:06:04.000Z</time>
      </trkpt>
      <trkpt lat="43.33316" lon="-1.43677">
        <ele>170</ele>
        <time>2026-03-06T19:06:24.000Z</time>
      </trkpt>
      <trkpt lat="43.33327" lon="-1.43697">
        <ele>165</ele>
        <time>2026-03-06T19:06:27.000Z</time>
      </trkpt>
      <trkpt lat="43.3335" lon="-1.43702">
        <ele>161</ele>
        <time>2026-03-06T19:06:32.000Z</time>
      </trkpt>
      <trkpt lat="43.33429" lon="-1.43687">
        <ele>154</ele>
        <time>2026-03-06T19:06:46.000Z</time>
      </trkpt>
      <trkpt lat="43.33453" lon="-1.4368">
        <ele>150</ele>
        <time>2026-03-06T19:06:50.000Z</time>
      </trkpt>
      <trkpt lat="43.33506" lon="-1.43644">
        <ele>143</ele>
        <time>2026-03-06T19:07:01.000Z</time>
      </trkpt>
      <trkpt lat="43.33548" lon="-1.43622">
        <ele>139</ele>
        <time>2026-03-06T19:07:09.000Z</time>
      </trkpt>
      <trkpt lat="43.33594" lon="-1.43608">
        <ele>135</ele>
        <time>2026-03-06T19:07:17.000Z</time>
      </trkpt>
      <trkpt lat="43.3363" lon="-1.43594">
        <ele>134</ele>
        <time>2026-03-06T19:07:24.000Z</time>
      </trkpt>
      <trkpt lat="43.33661" lon="-1.43578">
        <ele>133</ele>
        <time>2026-03-06T19:07:30.000Z</time>
      </trkpt>
      <trkpt lat="43.33695" lon="-1.43555">
        <ele>129</ele>
        <time>2026-03-06T19:07:36.000Z</time>
      </trkpt>
      <trkpt lat="43.33735" lon="-1.43519">
        <ele>127</ele>
        <time>2026-03-06T19:07:45.000Z</time>
      </trkpt>
      <trkpt lat="43.33831" lon="-1.43471">
        <ele>122</ele>
        <time>2026-03-06T19:08:03.000Z</time>
      </trkpt>
      <trkpt lat="43.33862" lon="-1.43467">
        <ele>124</ele>
        <time>2026-03-06T19:08:09.000Z</time>
      </trkpt>
      <trkpt lat="43.33869" lon="-1.4347">
        <ele>125</ele>
        <time>2026-03-06T19:08:10.000Z</time>
      </trkpt>
      <trkpt lat="43.33923" lon="-1.43604">
        <ele>122</ele>
        <time>2026-03-06T19:08:30.000Z</time>
      </trkpt>
      <trkpt lat="43.33939" lon="-1.43615">
        <ele>119</ele>
        <time>2026-03-06T19:08:33.000Z</time>
      </trkpt>
      <trkpt lat="43.33977" lon="-1.43625">
        <ele>117</ele>
        <time>2026-03-06T19:08:40.000Z</time>
      </trkpt>
      <trkpt lat="43.34048" lon="-1.43624">
        <ele>112</ele>
        <time>2026-03-06T19:08:52.000Z</time>
      </trkpt>
      <trkpt lat="43.34101" lon="-1.43619">
        <ele>108</ele>
        <time>2026-03-06T19:09:02.000Z</time>
      </trkpt>
      <trkpt lat="43.3413" lon="-1.43607">
        <ele>106</ele>
        <time>2026-03-06T19:09:07.000Z</time>
      </trkpt>
      <trkpt lat="43.34157" lon="-1.43599">
        <ele>104</ele>
        <time>2026-03-06T19:09:12.000Z</time>
      </trkpt>
      <trkpt lat="43.34188" lon="-1.43595">
        <ele>104</ele>
        <time>2026-03-06T19:09:18.000Z</time>
      </trkpt>
      <trkpt lat="43.34215" lon="-1.43593">
        <ele>104</ele>
        <time>2026-03-06T19:09:23.000Z</time>
      </trkpt>
      <trkpt lat="43.34233" lon="-1.43597">
        <ele>105</ele>
        <time>2026-03-06T19:09:26.000Z</time>
      </trkpt>
      <trkpt lat="43.34233" lon="-1.43597">
        <ele>105</ele>
        <time>2026-03-06T19:09:26.000Z</time>
      </trkpt>
      <trkpt lat="43.34253" lon="-1.436">
        <ele>105</ele>
        <time>2026-03-06T19:09:29.000Z</time>
      </trkpt>
      <trkpt lat="43.34284" lon="-1.436">
        <ele>103</ele>
        <time>2026-03-06T19:09:35.000Z</time>
      </trkpt>
      <trkpt lat="43.34302" lon="-1.43613">
        <ele>101</ele>
        <time>2026-03-06T19:09:39.000Z</time>
      </trkpt>
      <trkpt lat="43.34333" lon="-1.4365">
        <ele>97</ele>
        <time>2026-03-06T19:09:46.000Z</time>
      </trkpt>
      <trkpt lat="43.34381" lon="-1.43683">
        <ele>95</ele>
        <time>2026-03-06T19:09:55.000Z</time>
      </trkpt>
      <trkpt lat="43.34403" lon="-1.4369">
        <ele>94</ele>
        <time>2026-03-06T19:09:59.000Z</time>
      </trkpt>
      <trkpt lat="43.34451" lon="-1.43746">
        <ele>95</ele>
        <time>2026-03-06T19:10:11.000Z</time>
      </trkpt>
      <trkpt lat="43.34425" lon="-1.43765">
        <ele>93</ele>
        <time>2026-03-06T19:10:16.000Z</time>
      </trkpt>
      <trkpt lat="43.34409" lon="-1.43783">
        <ele>92</ele>
        <time>2026-03-06T19:10:20.000Z</time>
      </trkpt>
      <trkpt lat="43.34393" lon="-1.43807">
        <ele>91</ele>
        <time>2026-03-06T19:10:24.000Z</time>
      </trkpt>
      <trkpt lat="43.34378" lon="-1.43839">
        <ele>90</ele>
        <time>2026-03-06T19:10:29.000Z</time>
      </trkpt>
      <trkpt lat="43.34349" lon="-1.43931">
        <ele>86</ele>
        <time>2026-03-06T19:10:42.000Z</time>
      </trkpt>
      <trkpt lat="43.34336" lon="-1.43962">
        <ele>83</ele>
        <time>2026-03-06T19:10:46.000Z</time>
      </trkpt>
      <trkpt lat="43.3432" lon="-1.4399">
        <ele>81</ele>
        <time>2026-03-06T19:10:51.000Z</time>
      </trkpt>
      <trkpt lat="43.34249" lon="-1.44082">
        <ele>76</ele>
        <time>2026-03-06T19:11:08.000Z</time>
      </trkpt>
      <trkpt lat="43.34233" lon="-1.44106">
        <ele>75</ele>
        <time>2026-03-06T19:11:12.000Z</time>
      </trkpt>
      <trkpt lat="43.34214" lon="-1.4414">
        <ele>74</ele>
        <time>2026-03-06T19:11:18.000Z</time>
      </trkpt>
      <trkpt lat="43.34203" lon="-1.44163">
        <ele>73</ele>
        <time>2026-03-06T19:11:22.000Z</time>
      </trkpt>
      <trkpt lat="43.34185" lon="-1.44215">
        <ele>71</ele>
        <time>2026-03-06T19:11:29.000Z</time>
      </trkpt>
      <trkpt lat="43.34176" lon="-1.44236">
        <ele>70</ele>
        <time>2026-03-06T19:11:32.000Z</time>
      </trkpt>
      <trkpt lat="43.34152" lon="-1.44272">
        <ele>67</ele>
        <time>2026-03-06T19:11:38.000Z</time>
      </trkpt>
      <trkpt lat="43.34131" lon="-1.44299">
        <ele>65</ele>
        <time>2026-03-06T19:11:44.000Z</time>
      </trkpt>
      <trkpt lat="43.3412" lon="-1.44309">
        <ele>65</ele>
        <time>2026-03-06T19:11:46.000Z</time>
      </trkpt>
      <trkpt lat="43.34082" lon="-1.44334">
        <ele>63</ele>
        <time>2026-03-06T19:11:53.000Z</time>
      </trkpt>
      <trkpt lat="43.3403" lon="-1.44352">
        <ele>62</ele>
        <time>2026-03-06T19:12:03.000Z</time>
      </trkpt>
      <trkpt lat="43.34004" lon="-1.4437">
        <ele>62</ele>
        <time>2026-03-06T19:12:08.000Z</time>
      </trkpt>
      <trkpt lat="43.33992" lon="-1.44381">
        <ele>62</ele>
        <time>2026-03-06T19:12:11.000Z</time>
      </trkpt>
      <trkpt lat="43.33971" lon="-1.4441">
        <ele>61</ele>
        <time>2026-03-06T19:12:16.000Z</time>
      </trkpt>
      <trkpt lat="43.33958" lon="-1.44444">
        <ele>63</ele>
        <time>2026-03-06T19:12:21.000Z</time>
      </trkpt>
      <trkpt lat="43.33946" lon="-1.44485">
        <ele>65</ele>
        <time>2026-03-06T19:12:27.000Z</time>
      </trkpt>
      <trkpt lat="43.33942" lon="-1.44495">
        <ele>66</ele>
        <time>2026-03-06T19:12:28.000Z</time>
      </trkpt>
      <trkpt lat="43.33932" lon="-1.4451">
        <ele>67</ele>
        <time>2026-03-06T19:12:31.000Z</time>
      </trkpt>
      <trkpt lat="43.33919" lon="-1.44521">
        <ele>68</ele>
        <time>2026-03-06T19:12:34.000Z</time>
      </trkpt>
      <trkpt lat="43.33882" lon="-1.44544">
        <ele>73</ele>
        <time>2026-03-06T19:12:41.000Z</time>
      </trkpt>
      <trkpt lat="43.33861" lon="-1.44563">
        <ele>76</ele>
        <time>2026-03-06T19:12:45.000Z</time>
      </trkpt>
      <trkpt lat="43.33848" lon="-1.44585">
        <ele>78</ele>
        <time>2026-03-06T19:12:49.000Z</time>
      </trkpt>
      <trkpt lat="43.33839" lon="-1.44626">
        <ele>79</ele>
        <time>2026-03-06T19:12:54.000Z</time>
      </trkpt>
      <trkpt lat="43.3384" lon="-1.44652">
        <ele>79</ele>
        <time>2026-03-06T19:12:58.000Z</time>
      </trkpt>
      <trkpt lat="43.33844" lon="-1.44661">
        <ele>79</ele>
        <time>2026-03-06T19:12:59.000Z</time>
      </trkpt>
      <trkpt lat="43.33843" lon="-1.44669">
        <ele>79</ele>
        <time>2026-03-06T19:13:00.000Z</time>
      </trkpt>
      <trkpt lat="43.33841" lon="-1.44675">
        <ele>79</ele>
        <time>2026-03-06T19:13:01.000Z</time>
      </trkpt>
      <trkpt lat="43.33836" lon="-1.44705">
        <ele>78</ele>
        <time>2026-03-06T19:13:05.000Z</time>
      </trkpt>
      <trkpt lat="43.33838" lon="-1.4474">
        <ele>77</ele>
        <time>2026-03-06T19:13:10.000Z</time>
      </trkpt>
      <trkpt lat="43.33839" lon="-1.44838">
        <ele>73</ele>
        <time>2026-03-06T19:13:22.000Z</time>
      </trkpt>
      <trkpt lat="43.33842" lon="-1.44857">
        <ele>73</ele>
        <time>2026-03-06T19:13:25.000Z</time>
      </trkpt>
      <trkpt lat="43.33848" lon="-1.44879">
        <ele>73</ele>
        <time>2026-03-06T19:13:28.000Z</time>
      </trkpt>
      <trkpt lat="43.33866" lon="-1.44918">
        <ele>72</ele>
        <time>2026-03-06T19:13:34.000Z</time>
      </trkpt>
      <trkpt lat="43.33984" lon="-1.45122">
        <ele>63</ele>
        <time>2026-03-06T19:14:08.000Z</time>
      </trkpt>
      <trkpt lat="43.33999" lon="-1.45136">
        <ele>62</ele>
        <time>2026-03-06T19:14:11.000Z</time>
      </trkpt>
      <trkpt lat="43.34006" lon="-1.45135">
        <ele>62</ele>
        <time>2026-03-06T19:14:12.000Z</time>
      </trkpt>
      <trkpt lat="43.34013" lon="-1.4514">
        <ele>62</ele>
        <time>2026-03-06T19:14:13.000Z</time>
      </trkpt>
      <trkpt lat="43.34016" lon="-1.45149">
        <ele>62</ele>
        <time>2026-03-06T19:14:15.000Z</time>
      </trkpt>
      <trkpt lat="43.34016" lon="-1.4516">
        <ele>61</ele>
        <time>2026-03-06T19:14:16.000Z</time>
      </trkpt>
      <trkpt lat="43.34012" lon="-1.45169">
        <ele>60</ele>
        <time>2026-03-06T19:14:17.000Z</time>
      </trkpt>
      <trkpt lat="43.34006" lon="-1.45172">
        <ele>60</ele>
        <time>2026-03-06T19:14:19.000Z</time>
      </trkpt>
      <trkpt lat="43.33989" lon="-1.45195">
        <ele>60</ele>
        <time>2026-03-06T19:14:23.000Z</time>
      </trkpt>
      <trkpt lat="43.33983" lon="-1.4523">
        <ele>60</ele>
        <time>2026-03-06T19:14:28.000Z</time>
      </trkpt>
      <trkpt lat="43.33977" lon="-1.45247">
        <ele>60</ele>
        <time>2026-03-06T19:14:30.000Z</time>
      </trkpt>
      <trkpt lat="43.33964" lon="-1.4527">
        <ele>60</ele>
        <time>2026-03-06T19:14:34.000Z</time>
      </trkpt>
      <trkpt lat="43.33949" lon="-1.45287">
        <ele>60</ele>
        <time>2026-03-06T19:14:37.000Z</time>
      </trkpt>
      <trkpt lat="43.33876" lon="-1.45358">
        <ele>60</ele>
        <time>2026-03-06T19:14:53.000Z</time>
      </trkpt>
      <trkpt lat="43.33838" lon="-1.45406">
        <ele>59</ele>
        <time>2026-03-06T19:15:02.000Z</time>
      </trkpt>
      <trkpt lat="43.33826" lon="-1.45431">
        <ele>60</ele>
        <time>2026-03-06T19:15:06.000Z</time>
      </trkpt>
      <trkpt lat="43.33796" lon="-1.45514">
        <ele>62</ele>
        <time>2026-03-06T19:15:18.000Z</time>
      </trkpt>
      <trkpt lat="43.33767" lon="-1.45574">
        <ele>62</ele>
        <time>2026-03-06T19:15:27.000Z</time>
      </trkpt>
      <trkpt lat="43.33733" lon="-1.45627">
        <ele>63</ele>
        <time>2026-03-06T19:15:37.000Z</time>
      </trkpt>
      <trkpt lat="43.33573" lon="-1.45862">
        <ele>67</ele>
        <time>2026-03-06T19:16:18.000Z</time>
      </trkpt>
      <trkpt lat="43.3356" lon="-1.45886">
        <ele>67</ele>
        <time>2026-03-06T19:16:22.000Z</time>
      </trkpt>
      <trkpt lat="43.33551" lon="-1.45913">
        <ele>65</ele>
        <time>2026-03-06T19:16:26.000Z</time>
      </trkpt>
      <trkpt lat="43.33547" lon="-1.45937">
        <ele>64</ele>
        <time>2026-03-06T19:16:29.000Z</time>
      </trkpt>
      <trkpt lat="43.33546" lon="-1.45957">
        <ele>62</ele>
        <time>2026-03-06T19:16:32.000Z</time>
      </trkpt>
      <trkpt lat="43.33547" lon="-1.45974">
        <ele>61</ele>
        <time>2026-03-06T19:16:34.000Z</time>
      </trkpt>
      <trkpt lat="43.33551" lon="-1.45999">
        <ele>58</ele>
        <time>2026-03-06T19:16:37.000Z</time>
      </trkpt>
      <trkpt lat="43.33557" lon="-1.46026">
        <ele>58</ele>
        <time>2026-03-06T19:16:41.000Z</time>
      </trkpt>
      <trkpt lat="43.33575" lon="-1.46087">
        <ele>57</ele>
        <time>2026-03-06T19:16:49.000Z</time>
      </trkpt>
      <trkpt lat="43.33592" lon="-1.46125">
        <ele>57</ele>
        <time>2026-03-06T19:16:55.000Z</time>
      </trkpt>
      <trkpt lat="43.33623" lon="-1.46179">
        <ele>56</ele>
        <time>2026-03-06T19:17:04.000Z</time>
      </trkpt>
      <trkpt lat="43.33637" lon="-1.46212">
        <ele>56</ele>
        <time>2026-03-06T19:17:09.000Z</time>
      </trkpt>
      <trkpt lat="43.33649" lon="-1.46259">
        <ele>56</ele>
        <time>2026-03-06T19:17:16.000Z</time>
      </trkpt>
      <trkpt lat="43.33698" lon="-1.46555">
        <ele>64</ele>
        <time>2026-03-06T19:17:55.000Z</time>
      </trkpt>
      <trkpt lat="43.33699" lon="-1.46592">
        <ele>64</ele>
        <time>2026-03-06T19:18:00.000Z</time>
      </trkpt>
      <trkpt lat="43.33695" lon="-1.46682">
        <ele>65</ele>
        <time>2026-03-06T19:18:11.000Z</time>
      </trkpt>
      <trkpt lat="43.33697" lon="-1.46717">
        <ele>66</ele>
        <time>2026-03-06T19:18:16.000Z</time>
      </trkpt>
      <trkpt lat="43.33702" lon="-1.46745">
        <ele>66</ele>
        <time>2026-03-06T19:18:20.000Z</time>
      </trkpt>
      <trkpt lat="43.33713" lon="-1.46788">
        <ele>67</ele>
        <time>2026-03-06T19:18:25.000Z</time>
      </trkpt>
      <trkpt lat="43.33724" lon="-1.46816">
        <ele>67</ele>
        <time>2026-03-06T19:18:30.000Z</time>
      </trkpt>
      <trkpt lat="43.33745" lon="-1.46855">
        <ele>67</ele>
        <time>2026-03-06T19:18:36.000Z</time>
      </trkpt>
      <trkpt lat="43.33764" lon="-1.46877">
        <ele>67</ele>
        <time>2026-03-06T19:18:40.000Z</time>
      </trkpt>
      <trkpt lat="43.33788" lon="-1.46898">
        <ele>67</ele>
        <time>2026-03-06T19:18:45.000Z</time>
      </trkpt>
      <trkpt lat="43.3383" lon="-1.46925">
        <ele>67</ele>
        <time>2026-03-06T19:18:54.000Z</time>
      </trkpt>
      <trkpt lat="43.3383" lon="-1.46925">
        <ele>67</ele>
        <time>2026-03-06T19:18:54.000Z</time>
      </trkpt>
      <trkpt lat="43.33876" lon="-1.46955">
        <ele>65</ele>
        <time>2026-03-06T19:19:03.000Z</time>
      </trkpt>
      <trkpt lat="43.33897" lon="-1.46973">
        <ele>64</ele>
        <time>2026-03-06T19:19:07.000Z</time>
      </trkpt>
      <trkpt lat="43.33956" lon="-1.47037">
        <ele>63</ele>
        <time>2026-03-06T19:19:20.000Z</time>
      </trkpt>
      <trkpt lat="43.33978" lon="-1.47069">
        <ele>64</ele>
        <time>2026-03-06T19:19:26.000Z</time>
      </trkpt>
      <trkpt lat="43.34048" lon="-1.47218">
        <ele>65</ele>
        <time>2026-03-06T19:19:49.000Z</time>
      </trkpt>
      <trkpt lat="43.34061" lon="-1.47249">
        <ele>65</ele>
        <time>2026-03-06T19:19:54.000Z</time>
      </trkpt>
      <trkpt lat="43.34074" lon="-1.47266">
        <ele>63</ele>
        <time>2026-03-06T19:19:57.000Z</time>
      </trkpt>
      <trkpt lat="43.3408" lon="-1.47267">
        <ele>62</ele>
        <time>2026-03-06T19:19:58.000Z</time>
      </trkpt>
      <trkpt lat="43.34086" lon="-1.47273">
        <ele>62</ele>
        <time>2026-03-06T19:19:59.000Z</time>
      </trkpt>
      <trkpt lat="43.34088" lon="-1.47277">
        <ele>62</ele>
        <time>2026-03-06T19:20:00.000Z</time>
      </trkpt>
      <trkpt lat="43.34089" lon="-1.47288">
        <ele>63</ele>
        <time>2026-03-06T19:20:01.000Z</time>
      </trkpt>
      <trkpt lat="43.34088" lon="-1.47293">
        <ele>63</ele>
        <time>2026-03-06T19:20:02.000Z</time>
      </trkpt>
      <trkpt lat="43.34071" lon="-1.47314">
        <ele>66</ele>
        <time>2026-03-06T19:20:06.000Z</time>
      </trkpt>
      <trkpt lat="43.3407" lon="-1.47328">
        <ele>67</ele>
        <time>2026-03-06T19:20:08.000Z</time>
      </trkpt>
      <trkpt lat="43.3408" lon="-1.47417">
        <ele>66</ele>
        <time>2026-03-06T19:20:20.000Z</time>
      </trkpt>
      <trkpt lat="43.34086" lon="-1.47446">
        <ele>64</ele>
        <time>2026-03-06T19:20:23.000Z</time>
      </trkpt>
      <trkpt lat="43.34088" lon="-1.47467">
        <ele>64</ele>
        <time>2026-03-06T19:20:26.000Z</time>
      </trkpt>
      <trkpt lat="43.34085" lon="-1.47515">
        <ele>64</ele>
        <time>2026-03-06T19:20:32.000Z</time>
      </trkpt>
      <trkpt lat="43.34089" lon="-1.47535">
        <ele>65</ele>
        <time>2026-03-06T19:20:35.000Z</time>
      </trkpt>
      <trkpt lat="43.34086" lon="-1.47543">
        <ele>66</ele>
        <time>2026-03-06T19:20:36.000Z</time>
      </trkpt>
      <trkpt lat="43.3408" lon="-1.47547">
        <ele>66</ele>
        <time>2026-03-06T19:20:37.000Z</time>
      </trkpt>
      <trkpt lat="43.34042" lon="-1.47604">
        <ele>68</ele>
        <time>2026-03-06T19:20:47.000Z</time>
      </trkpt>
      <trkpt lat="43.34027" lon="-1.4763">
        <ele>68</ele>
        <time>2026-03-06T19:20:52.000Z</time>
      </trkpt>
      <trkpt lat="43.34011" lon="-1.47651">
        <ele>68</ele>
        <time>2026-03-06T19:20:56.000Z</time>
      </trkpt>
      <trkpt lat="43.33969" lon="-1.47701">
        <ele>68</ele>
        <time>2026-03-06T19:21:06.000Z</time>
      </trkpt>
      <trkpt lat="43.33946" lon="-1.47725">
        <ele>67</ele>
        <time>2026-03-06T19:21:11.000Z</time>
      </trkpt>
      <trkpt lat="43.33921" lon="-1.47742">
        <ele>65</ele>
        <time>2026-03-06T19:21:16.000Z</time>
      </trkpt>
      <trkpt lat="43.33885" lon="-1.47757">
        <ele>65</ele>
        <time>2026-03-06T19:21:22.000Z</time>
      </trkpt>
      <trkpt lat="43.33845" lon="-1.47758">
        <ele>65</ele>
        <time>2026-03-06T19:21:30.000Z</time>
      </trkpt>
      <trkpt lat="43.33815" lon="-1.47753">
        <ele>66</ele>
        <time>2026-03-06T19:21:35.000Z</time>
      </trkpt>
      <trkpt lat="43.33732" lon="-1.47729">
        <ele>68</ele>
        <time>2026-03-06T19:21:50.000Z</time>
      </trkpt>
      <trkpt lat="43.33717" lon="-1.47729">
        <ele>68</ele>
        <time>2026-03-06T19:21:53.000Z</time>
      </trkpt>
      <trkpt lat="43.33696" lon="-1.47733">
        <ele>69</ele>
        <time>2026-03-06T19:21:56.000Z</time>
      </trkpt>
      <trkpt lat="43.33678" lon="-1.4774">
        <ele>70</ele>
        <time>2026-03-06T19:22:00.000Z</time>
      </trkpt>
      <trkpt lat="43.33662" lon="-1.47753">
        <ele>71</ele>
        <time>2026-03-06T19:22:03.000Z</time>
      </trkpt>
      <trkpt lat="43.33649" lon="-1.47767">
        <ele>72</ele>
        <time>2026-03-06T19:22:06.000Z</time>
      </trkpt>
      <trkpt lat="43.33636" lon="-1.47788">
        <ele>73</ele>
        <time>2026-03-06T19:22:10.000Z</time>
      </trkpt>
      <trkpt lat="43.3363" lon="-1.47802">
        <ele>74</ele>
        <time>2026-03-06T19:22:12.000Z</time>
      </trkpt>
      <trkpt lat="43.33623" lon="-1.47822">
        <ele>74</ele>
        <time>2026-03-06T19:22:15.000Z</time>
      </trkpt>
      <trkpt lat="43.33619" lon="-1.47846">
        <ele>75</ele>
        <time>2026-03-06T19:22:18.000Z</time>
      </trkpt>
      <trkpt lat="43.33574" lon="-1.48188">
        <ele>94</ele>
        <time>2026-03-06T19:23:03.000Z</time>
      </trkpt>
      <trkpt lat="43.33562" lon="-1.48253">
        <ele>96</ele>
        <time>2026-03-06T19:23:11.000Z</time>
      </trkpt>
      <trkpt lat="43.3355" lon="-1.48289">
        <ele>98</ele>
        <time>2026-03-06T19:23:17.000Z</time>
      </trkpt>
      <trkpt lat="43.33532" lon="-1.48328">
        <ele>98</ele>
        <time>2026-03-06T19:23:22.000Z</time>
      </trkpt>
      <trkpt lat="43.33476" lon="-1.4843">
        <ele>103</ele>
        <time>2026-03-06T19:23:39.000Z</time>
      </trkpt>
      <trkpt lat="43.33458" lon="-1.48476">
        <ele>106</ele>
        <time>2026-03-06T19:23:46.000Z</time>
      </trkpt>
      <trkpt lat="43.3345" lon="-1.48502">
        <ele>107</ele>
        <time>2026-03-06T19:23:49.000Z</time>
      </trkpt>
      <trkpt lat="43.33436" lon="-1.48594">
        <ele>111</ele>
        <time>2026-03-06T19:24:02.000Z</time>
      </trkpt>
      <trkpt lat="43.3343" lon="-1.48616">
        <ele>111</ele>
        <time>2026-03-06T19:24:05.000Z</time>
      </trkpt>
      <trkpt lat="43.33422" lon="-1.48636">
        <ele>110</ele>
        <time>2026-03-06T19:24:08.000Z</time>
      </trkpt>
      <trkpt lat="43.33412" lon="-1.48655">
        <ele>110</ele>
        <time>2026-03-06T19:24:11.000Z</time>
      </trkpt>
      <trkpt lat="43.334" lon="-1.48674">
        <ele>111</ele>
        <time>2026-03-06T19:24:14.000Z</time>
      </trkpt>
      <trkpt lat="43.33342" lon="-1.48739">
        <ele>117</ele>
        <time>2026-03-06T19:24:27.000Z</time>
      </trkpt>
      <trkpt lat="43.33319" lon="-1.48776">
        <ele>119</ele>
        <time>2026-03-06T19:24:34.000Z</time>
      </trkpt>
      <trkpt lat="43.33295" lon="-1.48832">
        <ele>122</ele>
        <time>2026-03-06T19:24:42.000Z</time>
      </trkpt>
      <trkpt lat="43.33285" lon="-1.48866">
        <ele>122</ele>
        <time>2026-03-06T19:24:47.000Z</time>
      </trkpt>
      <trkpt lat="43.33283" lon="-1.48892">
        <ele>122</ele>
        <time>2026-03-06T19:24:50.000Z</time>
      </trkpt>
      <trkpt lat="43.33286" lon="-1.48916">
        <ele>123</ele>
        <time>2026-03-06T19:24:53.000Z</time>
      </trkpt>
      <trkpt lat="43.33286" lon="-1.48925">
        <ele>123</ele>
        <time>2026-03-06T19:24:54.000Z</time>
      </trkpt>
      <trkpt lat="43.33293" lon="-1.48933">
        <ele>123</ele>
        <time>2026-03-06T19:24:56.000Z</time>
      </trkpt>
      <trkpt lat="43.33293" lon="-1.4894">
        <ele>124</ele>
        <time>2026-03-06T19:24:57.000Z</time>
      </trkpt>
      <trkpt lat="43.33291" lon="-1.48947">
        <ele>124</ele>
        <time>2026-03-06T19:24:58.000Z</time>
      </trkpt>
      <trkpt lat="43.33295" lon="-1.48965">
        <ele>124</ele>
        <time>2026-03-06T19:25:00.000Z</time>
      </trkpt>
      <trkpt lat="43.33302" lon="-1.48981">
        <ele>124</ele>
        <time>2026-03-06T19:25:03.000Z</time>
      </trkpt>
      <trkpt lat="43.33309" lon="-1.49012">
        <ele>122</ele>
        <time>2026-03-06T19:25:07.000Z</time>
      </trkpt>
      <trkpt lat="43.33314" lon="-1.49049">
        <ele>120</ele>
        <time>2026-03-06T19:25:12.000Z</time>
      </trkpt>
      <trkpt lat="43.33337" lon="-1.49388">
        <ele>105</ele>
        <time>2026-03-06T19:25:56.000Z</time>
      </trkpt>
      <trkpt lat="43.33338" lon="-1.49433">
        <ele>104</ele>
        <time>2026-03-06T19:26:02.000Z</time>
      </trkpt>
      <trkpt lat="43.33336" lon="-1.49514">
        <ele>105</ele>
        <time>2026-03-06T19:26:12.000Z</time>
      </trkpt>
      <trkpt lat="43.33326" lon="-1.496">
        <ele>101</ele>
        <time>2026-03-06T19:26:23.000Z</time>
      </trkpt>
      <trkpt lat="43.33326" lon="-1.496">
        <ele>101</ele>
        <time>2026-03-06T19:26:23.000Z</time>
      </trkpt>
      <trkpt lat="43.33314" lon="-1.49693">
        <ele>96</ele>
        <time>2026-03-06T19:26:36.000Z</time>
      </trkpt>
      <trkpt lat="43.33312" lon="-1.49747">
        <ele>94</ele>
        <time>2026-03-06T19:26:43.000Z</time>
      </trkpt>
      <trkpt lat="43.33313" lon="-1.49796">
        <ele>93</ele>
        <time>2026-03-06T19:26:49.000Z</time>
      </trkpt>
      <trkpt lat="43.3332" lon="-1.49838">
        <ele>92</ele>
        <time>2026-03-06T19:26:55.000Z</time>
      </trkpt>
      <trkpt lat="43.33329" lon="-1.4987">
        <ele>89</ele>
        <time>2026-03-06T19:26:59.000Z</time>
      </trkpt>
      <trkpt lat="43.3346" lon="-1.50244">
        <ele>77</ele>
        <time>2026-03-06T19:27:53.000Z</time>
      </trkpt>
      <trkpt lat="43.33479" lon="-1.50283">
        <ele>76</ele>
        <time>2026-03-06T19:27:59.000Z</time>
      </trkpt>
      <trkpt lat="43.33498" lon="-1.50311">
        <ele>75</ele>
        <time>2026-03-06T19:28:04.000Z</time>
      </trkpt>
      <trkpt lat="43.33551" lon="-1.50375">
        <ele>76</ele>
        <time>2026-03-06T19:28:16.000Z</time>
      </trkpt>
      <trkpt lat="43.33579" lon="-1.50425">
        <ele>74</ele>
        <time>2026-03-06T19:28:24.000Z</time>
      </trkpt>
      <trkpt lat="43.33599" lon="-1.50474">
        <ele>76</ele>
        <time>2026-03-06T19:28:32.000Z</time>
      </trkpt>
      <trkpt lat="43.33612" lon="-1.50548">
        <ele>76</ele>
        <time>2026-03-06T19:28:42.000Z</time>
      </trkpt>
      <trkpt lat="43.33612" lon="-1.5057">
        <ele>76</ele>
        <time>2026-03-06T19:28:44.000Z</time>
      </trkpt>
      <trkpt lat="43.33594" lon="-1.50663">
        <ele>70</ele>
        <time>2026-03-06T19:28:57.000Z</time>
      </trkpt>
      <trkpt lat="43.33588" lon="-1.50703">
        <ele>65</ele>
        <time>2026-03-06T19:29:02.000Z</time>
      </trkpt>
      <trkpt lat="43.33586" lon="-1.50738">
        <ele>62</ele>
        <time>2026-03-06T19:29:07.000Z</time>
      </trkpt>
      <trkpt lat="43.33589" lon="-1.5077">
        <ele>60</ele>
        <time>2026-03-06T19:29:11.000Z</time>
      </trkpt>
      <trkpt lat="43.3363" lon="-1.51094">
        <ele>53</ele>
        <time>2026-03-06T19:29:53.000Z</time>
      </trkpt>
      <trkpt lat="43.33637" lon="-1.51133">
        <ele>52</ele>
        <time>2026-03-06T19:29:59.000Z</time>
      </trkpt>
      <trkpt lat="43.33643" lon="-1.51157">
        <ele>52</ele>
        <time>2026-03-06T19:30:02.000Z</time>
      </trkpt>
      <trkpt lat="43.33747" lon="-1.51498">
        <ele>47</ele>
        <time>2026-03-06T19:30:50.000Z</time>
      </trkpt>
      <trkpt lat="43.33778" lon="-1.51575">
        <ele>47</ele>
        <time>2026-03-06T19:31:01.000Z</time>
      </trkpt>
      <trkpt lat="43.33834" lon="-1.51711">
        <ele>44</ele>
        <time>2026-03-06T19:31:21.000Z</time>
      </trkpt>
      <trkpt lat="43.34149" lon="-1.52453">
        <ele>42</ele>
        <time>2026-03-06T19:33:13.000Z</time>
      </trkpt>
      <trkpt lat="43.34166" lon="-1.52489">
        <ele>41</ele>
        <time>2026-03-06T19:33:18.000Z</time>
      </trkpt>
      <trkpt lat="43.34244" lon="-1.52614">
        <ele>41</ele>
        <time>2026-03-06T19:33:39.000Z</time>
      </trkpt>
      <trkpt lat="43.34321" lon="-1.52745">
        <ele>36</ele>
        <time>2026-03-06T19:34:01.000Z</time>
      </trkpt>
      <trkpt lat="43.34332" lon="-1.52757">
        <ele>35</ele>
        <time>2026-03-06T19:34:04.000Z</time>
      </trkpt>
      <trkpt lat="43.34337" lon="-1.52757">
        <ele>35</ele>
        <time>2026-03-06T19:34:05.000Z</time>
      </trkpt>
      <trkpt lat="43.34346" lon="-1.52761">
        <ele>35</ele>
        <time>2026-03-06T19:34:06.000Z</time>
      </trkpt>
      <trkpt lat="43.34352" lon="-1.52768">
        <ele>35</ele>
        <time>2026-03-06T19:34:08.000Z</time>
      </trkpt>
      <trkpt lat="43.34354" lon="-1.52781">
        <ele>35</ele>
        <time>2026-03-06T19:34:09.000Z</time>
      </trkpt>
      <trkpt lat="43.34352" lon="-1.52792">
        <ele>35</ele>
        <time>2026-03-06T19:34:11.000Z</time>
      </trkpt>
      <trkpt lat="43.34359" lon="-1.52813">
        <ele>35</ele>
        <time>2026-03-06T19:34:14.000Z</time>
      </trkpt>
      <trkpt lat="43.34431" lon="-1.52938">
        <ele>36</ele>
        <time>2026-03-06T19:34:35.000Z</time>
      </trkpt>
      <trkpt lat="43.34439" lon="-1.5296">
        <ele>36</ele>
        <time>2026-03-06T19:34:38.000Z</time>
      </trkpt>
      <trkpt lat="43.34451" lon="-1.53016">
        <ele>38</ele>
        <time>2026-03-06T19:34:45.000Z</time>
      </trkpt>
      <trkpt lat="43.34461" lon="-1.53096">
        <ele>41</ele>
        <time>2026-03-06T19:34:56.000Z</time>
      </trkpt>
      <trkpt lat="43.34488" lon="-1.53413">
        <ele>43</ele>
        <time>2026-03-06T19:35:37.000Z</time>
      </trkpt>
      <trkpt lat="43.34523" lon="-1.53674">
        <ele>39</ele>
        <time>2026-03-06T19:36:11.000Z</time>
      </trkpt>
      <trkpt lat="43.34531" lon="-1.53721">
        <ele>38</ele>
        <time>2026-03-06T19:36:18.000Z</time>
      </trkpt>
      <trkpt lat="43.34557" lon="-1.53827">
        <ele>38</ele>
        <time>2026-03-06T19:36:32.000Z</time>
      </trkpt>
      <trkpt lat="43.34564" lon="-1.53862">
        <ele>37</ele>
        <time>2026-03-06T19:36:37.000Z</time>
      </trkpt>
      <trkpt lat="43.34568" lon="-1.53909">
        <ele>35</ele>
        <time>2026-03-06T19:36:43.000Z</time>
      </trkpt>
      <trkpt lat="43.34568" lon="-1.53959">
        <ele>34</ele>
        <time>2026-03-06T19:36:49.000Z</time>
      </trkpt>
      <trkpt lat="43.34572" lon="-1.53997">
        <ele>34</ele>
        <time>2026-03-06T19:36:54.000Z</time>
      </trkpt>
      <trkpt lat="43.34579" lon="-1.54025">
        <ele>34</ele>
        <time>2026-03-06T19:36:58.000Z</time>
      </trkpt>
      <trkpt lat="43.3459" lon="-1.54058">
        <ele>34</ele>
        <time>2026-03-06T19:37:03.000Z</time>
      </trkpt>
      <trkpt lat="43.34639" lon="-1.54155">
        <ele>37</ele>
        <time>2026-03-06T19:37:18.000Z</time>
      </trkpt>
      <trkpt lat="43.3465" lon="-1.54178">
        <ele>38</ele>
        <time>2026-03-06T19:37:22.000Z</time>
      </trkpt>
      <trkpt lat="43.34661" lon="-1.5421">
        <ele>37</ele>
        <time>2026-03-06T19:37:26.000Z</time>
      </trkpt>
      <trkpt lat="43.34669" lon="-1.5425">
        <ele>35</ele>
        <time>2026-03-06T19:37:32.000Z</time>
      </trkpt>
      <trkpt lat="43.34673" lon="-1.54279">
        <ele>35</ele>
        <time>2026-03-06T19:37:36.000Z</time>
      </trkpt>
      <trkpt lat="43.34674" lon="-1.54364">
        <ele>32</ele>
        <time>2026-03-06T19:37:47.000Z</time>
      </trkpt>
      <trkpt lat="43.34686" lon="-1.54335">
        <ele>35</ele>
        <time>2026-03-06T19:37:51.000Z</time>
      </trkpt>
      <trkpt lat="43.34686" lon="-1.54335">
        <ele>35</ele>
        <time>2026-03-06T19:37:51.000Z</time>
      </trkpt>
      <trkpt lat="43.34674" lon="-1.54364">
        <ele>32</ele>
        <time>2026-03-06T19:37:55.000Z</time>
      </trkpt>
      <trkpt lat="43.34676" lon="-1.54412">
        <ele>31</ele>
        <time>2026-03-06T19:38:01.000Z</time>
      </trkpt>
      <trkpt lat="43.3468" lon="-1.5445">
        <ele>29</ele>
        <time>2026-03-06T19:38:06.000Z</time>
      </trkpt>
      <trkpt lat="43.34688" lon="-1.54483">
        <ele>28</ele>
        <time>2026-03-06T19:38:11.000Z</time>
      </trkpt>
      <trkpt lat="43.347" lon="-1.54509">
        <ele>28</ele>
        <time>2026-03-06T19:38:15.000Z</time>
      </trkpt>
      <trkpt lat="43.34869" lon="-1.54775">
        <ele>25</ele>
        <time>2026-03-06T19:39:01.000Z</time>
      </trkpt>
      <trkpt lat="43.34888" lon="-1.548">
        <ele>25</ele>
        <time>2026-03-06T19:39:05.000Z</time>
      </trkpt>
      <trkpt lat="43.34909" lon="-1.54821">
        <ele>24</ele>
        <time>2026-03-06T19:39:10.000Z</time>
      </trkpt>
      <trkpt lat="43.34941" lon="-1.54841">
        <ele>23</ele>
        <time>2026-03-06T19:39:16.000Z</time>
      </trkpt>
      <trkpt lat="43.35076" lon="-1.54912">
        <ele>20</ele>
        <time>2026-03-06T19:39:42.000Z</time>
      </trkpt>
      <trkpt lat="43.35106" lon="-1.54935">
        <ele>19</ele>
        <time>2026-03-06T19:39:48.000Z</time>
      </trkpt>
      <trkpt lat="43.35113" lon="-1.54934">
        <ele>19</ele>
        <time>2026-03-06T19:39:49.000Z</time>
      </trkpt>
      <trkpt lat="43.3512" lon="-1.54937">
        <ele>19</ele>
        <time>2026-03-06T19:39:51.000Z</time>
      </trkpt>
      <trkpt lat="43.35125" lon="-1.54942">
        <ele>19</ele>
        <time>2026-03-06T19:39:52.000Z</time>
      </trkpt>
      <trkpt lat="43.35132" lon="-1.54956">
        <ele>18</ele>
        <time>2026-03-06T19:39:54.000Z</time>
      </trkpt>
      <trkpt lat="43.35133" lon="-1.54964">
        <ele>18</ele>
        <time>2026-03-06T19:39:55.000Z</time>
      </trkpt>
      <trkpt lat="43.35132" lon="-1.54974">
        <ele>18</ele>
        <time>2026-03-06T19:39:56.000Z</time>
      </trkpt>
      <trkpt lat="43.35128" lon="-1.54983">
        <ele>18</ele>
        <time>2026-03-06T19:39:58.000Z</time>
      </trkpt>
      <trkpt lat="43.35123" lon="-1.5499">
        <ele>18</ele>
        <time>2026-03-06T19:39:59.000Z</time>
      </trkpt>
      <trkpt lat="43.35261" lon="-1.55301">
        <ele>17</ele>
        <time>2026-03-06T19:40:46.000Z</time>
      </trkpt>
      <trkpt lat="43.35274" lon="-1.55324">
        <ele>18</ele>
        <time>2026-03-06T19:40:50.000Z</time>
      </trkpt>
      <trkpt lat="43.35293" lon="-1.55347">
        <ele>17</ele>
        <time>2026-03-06T19:40:54.000Z</time>
      </trkpt>
      <trkpt lat="43.35313" lon="-1.55363">
        <ele>17</ele>
        <time>2026-03-06T19:40:58.000Z</time>
      </trkpt>
      <trkpt lat="43.35338" lon="-1.55377">
        <ele>16</ele>
        <time>2026-03-06T19:41:03.000Z</time>
      </trkpt>
      <trkpt lat="43.35369" lon="-1.55382">
        <ele>16</ele>
        <time>2026-03-06T19:41:09.000Z</time>
      </trkpt>
      <trkpt lat="43.35398" lon="-1.5538">
        <ele>16</ele>
        <time>2026-03-06T19:41:14.000Z</time>
      </trkpt>
      <trkpt lat="43.35456" lon="-1.55371">
        <ele>16</ele>
        <time>2026-03-06T19:41:24.000Z</time>
      </trkpt>
      <trkpt lat="43.35483" lon="-1.5537">
        <ele>16</ele>
        <time>2026-03-06T19:41:29.000Z</time>
      </trkpt>
      <trkpt lat="43.35496" lon="-1.55373">
        <ele>16</ele>
        <time>2026-03-06T19:41:31.000Z</time>
      </trkpt>
      <trkpt lat="43.35509" lon="-1.55378">
        <ele>16</ele>
        <time>2026-03-06T19:41:34.000Z</time>
      </trkpt>
      <trkpt lat="43.35523" lon="-1.55388">
        <ele>16</ele>
        <time>2026-03-06T19:41:37.000Z</time>
      </trkpt>
      <trkpt lat="43.35548" lon="-1.55396">
        <ele>16</ele>
        <time>2026-03-06T19:41:41.000Z</time>
      </trkpt>
      <trkpt lat="43.35554" lon="-1.55395">
        <ele>16</ele>
        <time>2026-03-06T19:41:42.000Z</time>
      </trkpt>
      <trkpt lat="43.35557" lon="-1.55397">
        <ele>16</ele>
        <time>2026-03-06T19:41:43.000Z</time>
      </trkpt>
      <trkpt lat="43.35563" lon="-1.55404">
        <ele>16</ele>
        <time>2026-03-06T19:41:44.000Z</time>
      </trkpt>
      <trkpt lat="43.35565" lon="-1.55414">
        <ele>16</ele>
        <time>2026-03-06T19:41:46.000Z</time>
      </trkpt>
      <trkpt lat="43.35564" lon="-1.55422">
        <ele>16</ele>
        <time>2026-03-06T19:41:47.000Z</time>
      </trkpt>
      <trkpt lat="43.35574" lon="-1.55455">
        <ele>15</ele>
        <time>2026-03-06T19:41:51.000Z</time>
      </trkpt>
      <trkpt lat="43.35574" lon="-1.55465">
        <ele>14</ele>
        <time>2026-03-06T19:41:53.000Z</time>
      </trkpt>
      <trkpt lat="43.35577" lon="-1.55474">
        <ele>14</ele>
        <time>2026-03-06T19:41:54.000Z</time>
      </trkpt>
      <trkpt lat="43.3558" lon="-1.55498">
        <ele>13</ele>
        <time>2026-03-06T19:41:57.000Z</time>
      </trkpt>
      <trkpt lat="43.35583" lon="-1.55545">
        <ele>14</ele>
        <time>2026-03-06T19:42:03.000Z</time>
      </trkpt>
      <trkpt lat="43.35586" lon="-1.5563">
        <ele>16</ele>
        <time>2026-03-06T19:42:14.000Z</time>
      </trkpt>
      <trkpt lat="43.35585" lon="-1.55759">
        <ele>16</ele>
        <time>2026-03-06T19:42:31.000Z</time>
      </trkpt>
      <trkpt lat="43.35588" lon="-1.55806">
        <ele>15</ele>
        <time>2026-03-06T19:42:37.000Z</time>
      </trkpt>
      <trkpt lat="43.35596" lon="-1.55849">
        <ele>15</ele>
        <time>2026-03-06T19:42:43.000Z</time>
      </trkpt>
      <trkpt lat="43.35601" lon="-1.5592">
        <ele>14</ele>
        <time>2026-03-06T19:42:52.000Z</time>
      </trkpt>
      <trkpt lat="43.35594" lon="-1.55961">
        <ele>15</ele>
        <time>2026-03-06T19:42:57.000Z</time>
      </trkpt>
      <trkpt lat="43.35597" lon="-1.55988">
        <ele>15</ele>
        <time>2026-03-06T19:43:01.000Z</time>
      </trkpt>
      <trkpt lat="43.35627" lon="-1.56036">
        <ele>16</ele>
        <time>2026-03-06T19:43:09.000Z</time>
      </trkpt>
      <trkpt lat="43.35652" lon="-1.56086">
        <ele>18</ele>
        <time>2026-03-06T19:43:17.000Z</time>
      </trkpt>
      <trkpt lat="43.35635" lon="-1.56106">
        <ele>18</ele>
        <time>2026-03-06T19:43:21.000Z</time>
      </trkpt>
      <trkpt lat="43.35625" lon="-1.56126">
        <ele>18</ele>
        <time>2026-03-06T19:43:24.000Z</time>
      </trkpt>
      <trkpt lat="43.35617" lon="-1.5617">
        <ele>19</ele>
        <time>2026-03-06T19:43:30.000Z</time>
      </trkpt>
      <trkpt lat="43.35615" lon="-1.56214">
        <ele>19</ele>
        <time>2026-03-06T19:43:36.000Z</time>
      </trkpt>
      <trkpt lat="43.35622" lon="-1.56509">
        <ele>19</ele>
        <time>2026-03-06T19:44:14.000Z</time>
      </trkpt>
      <trkpt lat="43.35622" lon="-1.56558">
        <ele>19</ele>
        <time>2026-03-06T19:44:20.000Z</time>
      </trkpt>
      <trkpt lat="43.35624" lon="-1.56587">
        <ele>19</ele>
        <time>2026-03-06T19:44:24.000Z</time>
      </trkpt>
      <trkpt lat="43.35627" lon="-1.56588">
        <ele>19</ele>
        <time>2026-03-06T19:44:24.000Z</time>
      </trkpt>
      <trkpt lat="43.35633" lon="-1.56592">
        <ele>19</ele>
        <time>2026-03-06T19:44:26.000Z</time>
      </trkpt>
      <trkpt lat="43.35634" lon="-1.56595">
        <ele>19</ele>
        <time>2026-03-06T19:44:26.000Z</time>
      </trkpt>
      <trkpt lat="43.35635" lon="-1.56604">
        <ele>19</ele>
        <time>2026-03-06T19:44:27.000Z</time>
      </trkpt>
      <trkpt lat="43.3563" lon="-1.56613">
        <ele>19</ele>
        <time>2026-03-06T19:44:29.000Z</time>
      </trkpt>
      <trkpt lat="43.35624" lon="-1.56615">
        <ele>19</ele>
        <time>2026-03-06T19:44:30.000Z</time>
      </trkpt>
      <trkpt lat="43.35625" lon="-1.56642">
        <ele>19</ele>
        <time>2026-03-06T19:44:33.000Z</time>
      </trkpt>
      <trkpt lat="43.35617" lon="-1.56692">
        <ele>19</ele>
        <time>2026-03-06T19:44:40.000Z</time>
      </trkpt>
      <trkpt lat="43.35592" lon="-1.56778">
        <ele>17</ele>
        <time>2026-03-06T19:44:52.000Z</time>
      </trkpt>
      <trkpt lat="43.35587" lon="-1.56801">
        <ele>17</ele>
        <time>2026-03-06T19:44:55.000Z</time>
      </trkpt>
      <trkpt lat="43.35585" lon="-1.56823">
        <ele>17</ele>
        <time>2026-03-06T19:44:58.000Z</time>
      </trkpt>
      <trkpt lat="43.35588" lon="-1.56851">
        <ele>17</ele>
        <time>2026-03-06T19:45:02.000Z</time>
      </trkpt>
      <trkpt lat="43.35593" lon="-1.56864">
        <ele>17</ele>
        <time>2026-03-06T19:45:03.000Z</time>
      </trkpt>
      <trkpt lat="43.35608" lon="-1.56893">
        <ele>17</ele>
        <time>2026-03-06T19:45:08.000Z</time>
      </trkpt>
      <trkpt lat="43.35625" lon="-1.56922">
        <ele>17</ele>
        <time>2026-03-06T19:45:13.000Z</time>
      </trkpt>
      <trkpt lat="43.35723" lon="-1.5713">
        <ele>15</ele>
        <time>2026-03-06T19:45:45.000Z</time>
      </trkpt>
      <trkpt lat="43.35733" lon="-1.5716">
        <ele>15</ele>
        <time>2026-03-06T19:45:49.000Z</time>
      </trkpt>
      <trkpt lat="43.3574" lon="-1.57189">
        <ele>15</ele>
        <time>2026-03-06T19:45:53.000Z</time>
      </trkpt>
      <trkpt lat="43.35745" lon="-1.57225">
        <ele>14</ele>
        <time>2026-03-06T19:45:58.000Z</time>
      </trkpt>
      <trkpt lat="43.35763" lon="-1.57418">
        <ele>13</ele>
        <time>2026-03-06T19:46:23.000Z</time>
      </trkpt>
      <trkpt lat="43.35767" lon="-1.57433">
        <ele>13</ele>
        <time>2026-03-06T19:46:25.000Z</time>
      </trkpt>
      <trkpt lat="43.35781" lon="-1.57455">
        <ele>13</ele>
        <time>2026-03-06T19:46:29.000Z</time>
      </trkpt>
      <trkpt lat="43.35786" lon="-1.57459">
        <ele>13</ele>
        <time>2026-03-06T19:46:30.000Z</time>
      </trkpt>
      <trkpt lat="43.35814" lon="-1.57458">
        <ele>14</ele>
        <time>2026-03-06T19:46:35.000Z</time>
      </trkpt>
      <trkpt lat="43.35805" lon="-1.57428">
        <ele>14</ele>
        <time>2026-03-06T19:46:39.000Z</time>
      </trkpt>
      <trkpt lat="43.35805" lon="-1.57428">
        <ele>14</ele>
        <time>2026-03-06T19:46:39.000Z</time>
      </trkpt>
      <trkpt lat="43.35814" lon="-1.57458">
        <ele>14</ele>
        <time>2026-03-06T19:46:43.000Z</time>
      </trkpt>
      <trkpt lat="43.35809" lon="-1.57458">
        <ele>14</ele>
        <time>2026-03-06T19:46:44.000Z</time>
      </trkpt>
      <trkpt lat="43.35789" lon="-1.5747">
        <ele>13</ele>
        <time>2026-03-06T19:46:48.000Z</time>
      </trkpt>
      <trkpt lat="43.35784" lon="-1.57479">
        <ele>13</ele>
        <time>2026-03-06T19:46:50.000Z</time>
      </trkpt>
      <trkpt lat="43.35781" lon="-1.57496">
        <ele>13</ele>
        <time>2026-03-06T19:46:52.000Z</time>
      </trkpt>
      <trkpt lat="43.35779" lon="-1.57526">
        <ele>13</ele>
        <time>2026-03-06T19:46:56.000Z</time>
      </trkpt>
      <trkpt lat="43.35779" lon="-1.57552">
        <ele>13</ele>
        <time>2026-03-06T19:46:59.000Z</time>
      </trkpt>
      <trkpt lat="43.35782" lon="-1.57586">
        <ele>13</ele>
        <time>2026-03-06T19:47:04.000Z</time>
      </trkpt>
      <trkpt lat="43.35827" lon="-1.57821">
        <ele>11</ele>
        <time>2026-03-06T19:47:35.000Z</time>
      </trkpt>
      <trkpt lat="43.35838" lon="-1.57869">
        <ele>11</ele>
        <time>2026-03-06T19:47:41.000Z</time>
      </trkpt>
      <trkpt lat="43.35852" lon="-1.57913">
        <ele>12</ele>
        <time>2026-03-06T19:47:48.000Z</time>
      </trkpt>
      <trkpt lat="43.35864" lon="-1.57937">
        <ele>12</ele>
        <time>2026-03-06T19:47:51.000Z</time>
      </trkpt>
      <trkpt lat="43.35894" lon="-1.57993">
        <ele>11</ele>
        <time>2026-03-06T19:48:00.000Z</time>
      </trkpt>
      <trkpt lat="43.36003" lon="-1.58148">
        <ele>11</ele>
        <time>2026-03-06T19:48:28.000Z</time>
      </trkpt>
      <trkpt lat="43.36109" lon="-1.58303">
        <ele>12</ele>
        <time>2026-03-06T19:48:56.000Z</time>
      </trkpt>
      <trkpt lat="43.36129" lon="-1.58341">
        <ele>12</ele>
        <time>2026-03-06T19:49:02.000Z</time>
      </trkpt>
      <trkpt lat="43.36139" lon="-1.58363">
        <ele>12</ele>
        <time>2026-03-06T19:49:05.000Z</time>
      </trkpt>
      <trkpt lat="43.36164" lon="-1.58429">
        <ele>12</ele>
        <time>2026-03-06T19:49:15.000Z</time>
      </trkpt>
      <trkpt lat="43.36257" lon="-1.58723">
        <ele>14</ele>
        <time>2026-03-06T19:49:56.000Z</time>
      </trkpt>
      <trkpt lat="43.3628" lon="-1.58766">
        <ele>18</ele>
        <time>2026-03-06T19:50:03.000Z</time>
      </trkpt>
      <trkpt lat="43.36308" lon="-1.58801">
        <ele>19</ele>
        <time>2026-03-06T19:50:10.000Z</time>
      </trkpt>
      <trkpt lat="43.36402" lon="-1.58885">
        <ele>17</ele>
        <time>2026-03-06T19:50:30.000Z</time>
      </trkpt>
      <trkpt lat="43.36427" lon="-1.58913">
        <ele>13</ele>
        <time>2026-03-06T19:50:36.000Z</time>
      </trkpt>
      <trkpt lat="43.36444" lon="-1.58941">
        <ele>12</ele>
        <time>2026-03-06T19:50:40.000Z</time>
      </trkpt>
      <trkpt lat="43.3646" lon="-1.58976">
        <ele>11</ele>
        <time>2026-03-06T19:50:46.000Z</time>
      </trkpt>
      <trkpt lat="43.36482" lon="-1.59044">
        <ele>9</ele>
        <time>2026-03-06T19:50:55.000Z</time>
      </trkpt>
      <trkpt lat="43.36581" lon="-1.59376">
        <ele>9</ele>
        <time>2026-03-06T19:51:42.000Z</time>
      </trkpt>
      <trkpt lat="43.36589" lon="-1.5943">
        <ele>9</ele>
        <time>2026-03-06T19:51:49.000Z</time>
      </trkpt>
      <trkpt lat="43.36592" lon="-1.59482">
        <ele>9</ele>
        <time>2026-03-06T19:51:56.000Z</time>
      </trkpt>
      <trkpt lat="43.36588" lon="-1.59546">
        <ele>11</ele>
        <time>2026-03-06T19:52:04.000Z</time>
      </trkpt>
      <trkpt lat="43.36567" lon="-1.59809">
        <ele>18</ele>
        <time>2026-03-06T19:52:38.000Z</time>
      </trkpt>
      <trkpt lat="43.36562" lon="-1.59843">
        <ele>18</ele>
        <time>2026-03-06T19:52:43.000Z</time>
      </trkpt>
      <trkpt lat="43.36549" lon="-1.59873">
        <ele>17</ele>
        <time>2026-03-06T19:52:47.000Z</time>
      </trkpt>
      <trkpt lat="43.36533" lon="-1.59897">
        <ele>16</ele>
        <time>2026-03-06T19:52:51.000Z</time>
      </trkpt>
      <trkpt lat="43.36476" lon="-1.5994">
        <ele>14</ele>
        <time>2026-03-06T19:53:03.000Z</time>
      </trkpt>
      <trkpt lat="43.36426" lon="-1.59985">
        <ele>13</ele>
        <time>2026-03-06T19:53:14.000Z</time>
      </trkpt>
      <trkpt lat="43.36392" lon="-1.60032">
        <ele>14</ele>
        <time>2026-03-06T19:53:22.000Z</time>
      </trkpt>
      <trkpt lat="43.36369" lon="-1.60073">
        <ele>15</ele>
        <time>2026-03-06T19:53:29.000Z</time>
      </trkpt>
      <trkpt lat="43.36345" lon="-1.6014">
        <ele>16</ele>
        <time>2026-03-06T19:53:39.000Z</time>
      </trkpt>
      <trkpt lat="43.36326" lon="-1.60185">
        <ele>18</ele>
        <time>2026-03-06T19:53:45.000Z</time>
      </trkpt>
      <trkpt lat="43.36299" lon="-1.60225">
        <ele>21</ele>
        <time>2026-03-06T19:53:52.000Z</time>
      </trkpt>
      <trkpt lat="43.36265" lon="-1.60257">
        <ele>19</ele>
        <time>2026-03-06T19:54:00.000Z</time>
      </trkpt>
      <trkpt lat="43.36203" lon="-1.60308">
        <ele>15</ele>
        <time>2026-03-06T19:54:13.000Z</time>
      </trkpt>
      <trkpt lat="43.36173" lon="-1.60338">
        <ele>13</ele>
        <time>2026-03-06T19:54:19.000Z</time>
      </trkpt>
      <trkpt lat="43.36152" lon="-1.60365">
        <ele>14</ele>
        <time>2026-03-06T19:54:24.000Z</time>
      </trkpt>
      <trkpt lat="43.36125" lon="-1.6041">
        <ele>15</ele>
        <time>2026-03-06T19:54:32.000Z</time>
      </trkpt>
      <trkpt lat="43.36109" lon="-1.60457">
        <ele>16</ele>
        <time>2026-03-06T19:54:39.000Z</time>
      </trkpt>
      <trkpt lat="43.36102" lon="-1.60521">
        <ele>17</ele>
        <time>2026-03-06T19:54:47.000Z</time>
      </trkpt>
      <trkpt lat="43.36104" lon="-1.60586">
        <ele>18</ele>
        <time>2026-03-06T19:54:55.000Z</time>
      </trkpt>
      <trkpt lat="43.36118" lon="-1.607">
        <ele>18</ele>
        <time>2026-03-06T19:55:10.000Z</time>
      </trkpt>
      <trkpt lat="43.36119" lon="-1.6075">
        <ele>18</ele>
        <time>2026-03-06T19:55:17.000Z</time>
      </trkpt>
      <trkpt lat="43.36112" lon="-1.6083">
        <ele>16</ele>
        <time>2026-03-06T19:55:27.000Z</time>
      </trkpt>
      <trkpt lat="43.36113" lon="-1.60838">
        <ele>16</ele>
        <time>2026-03-06T19:55:28.000Z</time>
      </trkpt>
      <trkpt lat="43.36105" lon="-1.61018">
        <ele>17</ele>
        <time>2026-03-06T19:55:52.000Z</time>
      </trkpt>
      <trkpt lat="43.361" lon="-1.61078">
        <ele>15</ele>
        <time>2026-03-06T19:55:59.000Z</time>
      </trkpt>
      <trkpt lat="43.36091" lon="-1.61139">
        <ele>13</ele>
        <time>2026-03-06T19:56:07.000Z</time>
      </trkpt>
      <trkpt lat="43.36075" lon="-1.61188">
        <ele>12</ele>
        <time>2026-03-06T19:56:14.000Z</time>
      </trkpt>
      <trkpt lat="43.36058" lon="-1.61224">
        <ele>11</ele>
        <time>2026-03-06T19:56:20.000Z</time>
      </trkpt>
      <trkpt lat="43.36042" lon="-1.61253">
        <ele>11</ele>
        <time>2026-03-06T19:56:25.000Z</time>
      </trkpt>
      <trkpt lat="43.36026" lon="-1.61276">
        <ele>11</ele>
        <time>2026-03-06T19:56:29.000Z</time>
      </trkpt>
      <trkpt lat="43.35937" lon="-1.61392">
        <ele>15</ele>
        <time>2026-03-06T19:56:51.000Z</time>
      </trkpt>
      <trkpt lat="43.35937" lon="-1.61392">
        <ele>15</ele>
        <time>2026-03-06T19:56:51.000Z</time>
      </trkpt>
      <trkpt lat="43.35913" lon="-1.61419">
        <ele>16</ele>
        <time>2026-03-06T19:56:56.000Z</time>
      </trkpt>
      <trkpt lat="43.35815" lon="-1.61503">
        <ele>12</ele>
        <time>2026-03-06T19:57:17.000Z</time>
      </trkpt>
      <trkpt lat="43.35787" lon="-1.61535">
        <ele>14</ele>
        <time>2026-03-06T19:57:23.000Z</time>
      </trkpt>
      <trkpt lat="43.35515" lon="-1.61963">
        <ele>18</ele>
        <time>2026-03-06T19:58:37.000Z</time>
      </trkpt>
      <trkpt lat="43.35486" lon="-1.62001">
        <ele>18</ele>
        <time>2026-03-06T19:58:44.000Z</time>
      </trkpt>
      <trkpt lat="43.35432" lon="-1.62045">
        <ele>21</ele>
        <time>2026-03-06T19:58:55.000Z</time>
      </trkpt>
      <trkpt lat="43.35407" lon="-1.6206">
        <ele>21</ele>
        <time>2026-03-06T19:59:00.000Z</time>
      </trkpt>
      <trkpt lat="43.3524" lon="-1.62126">
        <ele>14</ele>
        <time>2026-03-06T19:59:31.000Z</time>
      </trkpt>
      <trkpt lat="43.35214" lon="-1.62143">
        <ele>12</ele>
        <time>2026-03-06T19:59:36.000Z</time>
      </trkpt>
      <trkpt lat="43.35191" lon="-1.62169">
        <ele>11</ele>
        <time>2026-03-06T19:59:41.000Z</time>
      </trkpt>
      <trkpt lat="43.35181" lon="-1.62185">
        <ele>11</ele>
        <time>2026-03-06T19:59:44.000Z</time>
      </trkpt>
      <trkpt lat="43.35118" lon="-1.62308">
        <ele>11</ele>
        <time>2026-03-06T20:00:03.000Z</time>
      </trkpt>
      <trkpt lat="43.35109" lon="-1.62334">
        <ele>10</ele>
        <time>2026-03-06T20:00:07.000Z</time>
      </trkpt>
      <trkpt lat="43.35103" lon="-1.62402">
        <ele>11</ele>
        <time>2026-03-06T20:00:16.000Z</time>
      </trkpt>
      <trkpt lat="43.35103" lon="-1.62461">
        <ele>10</ele>
        <time>2026-03-06T20:00:24.000Z</time>
      </trkpt>
      <trkpt lat="43.35108" lon="-1.62493">
        <ele>11</ele>
        <time>2026-03-06T20:00:28.000Z</time>
      </trkpt>
      <trkpt lat="43.35118" lon="-1.62528">
        <ele>12</ele>
        <time>2026-03-06T20:00:33.000Z</time>
      </trkpt>
      <trkpt lat="43.35207" lon="-1.62759">
        <ele>8</ele>
        <time>2026-03-06T20:01:06.000Z</time>
      </trkpt>
      <trkpt lat="43.35258" lon="-1.62906">
        <ele>6</ele>
        <time>2026-03-06T20:01:28.000Z</time>
      </trkpt>
      <trkpt lat="43.3528" lon="-1.62956">
        <ele>6</ele>
        <time>2026-03-06T20:01:35.000Z</time>
      </trkpt>
      <trkpt lat="43.35289" lon="-1.62974">
        <ele>6</ele>
        <time>2026-03-06T20:01:38.000Z</time>
      </trkpt>
      <trkpt lat="43.35306" lon="-1.62998">
        <ele>6</ele>
        <time>2026-03-06T20:01:42.000Z</time>
      </trkpt>
      <trkpt lat="43.35332" lon="-1.63028">
        <ele>7</ele>
        <time>2026-03-06T20:01:48.000Z</time>
      </trkpt>
      <trkpt lat="43.35365" lon="-1.63059">
        <ele>7</ele>
        <time>2026-03-06T20:01:55.000Z</time>
      </trkpt>
      <trkpt lat="43.35403" lon="-1.63082">
        <ele>7</ele>
        <time>2026-03-06T20:02:03.000Z</time>
      </trkpt>
      <trkpt lat="43.3544" lon="-1.63096">
        <ele>6</ele>
        <time>2026-03-06T20:02:10.000Z</time>
      </trkpt>
      <trkpt lat="43.35615" lon="-1.63147">
        <ele>5</ele>
        <time>2026-03-06T20:02:41.000Z</time>
      </trkpt>
      <trkpt lat="43.35639" lon="-1.63145">
        <ele>6</ele>
        <time>2026-03-06T20:02:46.000Z</time>
      </trkpt>
      <trkpt lat="43.35647" lon="-1.63139">
        <ele>6</ele>
        <time>2026-03-06T20:02:47.000Z</time>
      </trkpt>
      <trkpt lat="43.35653" lon="-1.63131">
        <ele>7</ele>
        <time>2026-03-06T20:02:49.000Z</time>
      </trkpt>
      <trkpt lat="43.35657" lon="-1.63129">
        <ele>7</ele>
        <time>2026-03-06T20:02:50.000Z</time>
      </trkpt>
      <trkpt lat="43.35661" lon="-1.63129">
        <ele>7</ele>
        <time>2026-03-06T20:02:50.000Z</time>
      </trkpt>
      <trkpt lat="43.35668" lon="-1.63133">
        <ele>7</ele>
        <time>2026-03-06T20:02:52.000Z</time>
      </trkpt>
      <trkpt lat="43.35672" lon="-1.63143">
        <ele>7</ele>
        <time>2026-03-06T20:02:53.000Z</time>
      </trkpt>
      <trkpt lat="43.35673" lon="-1.63149">
        <ele>7</ele>
        <time>2026-03-06T20:02:54.000Z</time>
      </trkpt>
      <trkpt lat="43.35676" lon="-1.63154">
        <ele>7</ele>
        <time>2026-03-06T20:02:55.000Z</time>
      </trkpt>
      <trkpt lat="43.35699" lon="-1.63173">
        <ele>6</ele>
        <time>2026-03-06T20:03:00.000Z</time>
      </trkpt>
      <trkpt lat="43.35749" lon="-1.63192">
        <ele>7</ele>
        <time>2026-03-06T20:03:09.000Z</time>
      </trkpt>
      <trkpt lat="43.35789" lon="-1.63219">
        <ele>9</ele>
        <time>2026-03-06T20:03:17.000Z</time>
      </trkpt>
      <trkpt lat="43.35827" lon="-1.63249">
        <ele>8</ele>
        <time>2026-03-06T20:03:24.000Z</time>
      </trkpt>
      <trkpt lat="43.35932" lon="-1.63351">
        <ele>9</ele>
        <time>2026-03-06T20:03:47.000Z</time>
      </trkpt>
      <trkpt lat="43.35991" lon="-1.63443">
        <ele>8</ele>
        <time>2026-03-06T20:04:03.000Z</time>
      </trkpt>
      <trkpt lat="43.36011" lon="-1.63495">
        <ele>6</ele>
        <time>2026-03-06T20:04:11.000Z</time>
      </trkpt>
      <trkpt lat="43.36029" lon="-1.63532">
        <ele>6</ele>
        <time>2026-03-06T20:04:17.000Z</time>
      </trkpt>
      <trkpt lat="43.36042" lon="-1.63555">
        <ele>6</ele>
        <time>2026-03-06T20:04:20.000Z</time>
      </trkpt>
      <trkpt lat="43.36061" lon="-1.63577">
        <ele>5</ele>
        <time>2026-03-06T20:04:25.000Z</time>
      </trkpt>
      <trkpt lat="43.36075" lon="-1.63589">
        <ele>5</ele>
        <time>2026-03-06T20:04:28.000Z</time>
      </trkpt>
      <trkpt lat="43.36111" lon="-1.63609">
        <ele>5</ele>
        <time>2026-03-06T20:04:35.000Z</time>
      </trkpt>
      <trkpt lat="43.36233" lon="-1.63654">
        <ele>6</ele>
        <time>2026-03-06T20:04:57.000Z</time>
      </trkpt>
      <trkpt lat="43.36273" lon="-1.63671">
        <ele>6</ele>
        <time>2026-03-06T20:05:05.000Z</time>
      </trkpt>
      <trkpt lat="43.36317" lon="-1.63673">
        <ele>7</ele>
        <time>2026-03-06T20:05:12.000Z</time>
      </trkpt>
      <trkpt lat="43.36639" lon="-1.63578">
        <ele>7</ele>
        <time>2026-03-06T20:06:11.000Z</time>
      </trkpt>
      <trkpt lat="43.36679" lon="-1.63572">
        <ele>8</ele>
        <time>2026-03-06T20:06:18.000Z</time>
      </trkpt>
      <trkpt lat="43.36707" lon="-1.63575">
        <ele>8</ele>
        <time>2026-03-06T20:06:23.000Z</time>
      </trkpt>
      <trkpt lat="43.36745" lon="-1.63592">
        <ele>7</ele>
        <time>2026-03-06T20:06:30.000Z</time>
      </trkpt>
      <trkpt lat="43.37063" lon="-1.63793">
        <ele>6</ele>
        <time>2026-03-06T20:07:33.000Z</time>
      </trkpt>
      <trkpt lat="43.37085" lon="-1.63801">
        <ele>6</ele>
        <time>2026-03-06T20:07:37.000Z</time>
      </trkpt>
      <trkpt lat="43.37111" lon="-1.63806">
        <ele>5</ele>
        <time>2026-03-06T20:07:41.000Z</time>
      </trkpt>
      <trkpt lat="43.37409" lon="-1.63788">
        <ele>4</ele>
        <time>2026-03-06T20:08:34.000Z</time>
      </trkpt>
      <trkpt lat="43.37444" lon="-1.63779">
        <ele>4</ele>
        <time>2026-03-06T20:08:41.000Z</time>
      </trkpt>
      <trkpt lat="43.37508" lon="-1.63777">
        <ele>4</ele>
        <time>2026-03-06T20:08:52.000Z</time>
      </trkpt>
      <trkpt lat="43.37526" lon="-1.63781">
        <ele>5</ele>
        <time>2026-03-06T20:08:55.000Z</time>
      </trkpt>
      <trkpt lat="43.37541" lon="-1.63773">
        <ele>5</ele>
        <time>2026-03-06T20:08:58.000Z</time>
      </trkpt>
      <trkpt lat="43.37607" lon="-1.63771">
        <ele>6</ele>
        <time>2026-03-06T20:09:10.000Z</time>
      </trkpt>
      <trkpt lat="43.37642" lon="-1.63776">
        <ele>6</ele>
        <time>2026-03-06T20:09:16.000Z</time>
      </trkpt>
      <trkpt lat="43.37738" lon="-1.63772">
        <ele>8</ele>
        <time>2026-03-06T20:09:33.000Z</time>
      </trkpt>
      <trkpt lat="43.37759" lon="-1.63774">
        <ele>8</ele>
        <time>2026-03-06T20:09:37.000Z</time>
      </trkpt>
      <trkpt lat="43.37776" lon="-1.63786">
        <ele>8</ele>
        <time>2026-03-06T20:09:40.000Z</time>
      </trkpt>
      <trkpt lat="43.37906" lon="-1.63917">
        <ele>6</ele>
        <time>2026-03-06T20:10:09.000Z</time>
      </trkpt>
      <trkpt lat="43.38056" lon="-1.64058">
        <ele>9</ele>
        <time>2026-03-06T20:10:41.000Z</time>
      </trkpt>
      <trkpt lat="43.3812" lon="-1.64193">
        <ele>6</ele>
        <time>2026-03-06T20:11:02.000Z</time>
      </trkpt>
      <trkpt lat="43.38155" lon="-1.6423">
        <ele>6</ele>
        <time>2026-03-06T20:11:10.000Z</time>
      </trkpt>
      <trkpt lat="43.38158" lon="-1.6421">
        <ele>7</ele>
        <time>2026-03-06T20:11:13.000Z</time>
      </trkpt>
      <trkpt lat="43.38132" lon="-1.64193">
        <ele>7</ele>
        <time>2026-03-06T20:11:18.000Z</time>
      </trkpt>
      <trkpt lat="43.38121" lon="-1.64165">
        <ele>8</ele>
        <time>2026-03-06T20:11:22.000Z</time>
      </trkpt>
      <trkpt lat="43.38117" lon="-1.64144">
        <ele>9</ele>
        <time>2026-03-06T20:11:25.000Z</time>
      </trkpt>
      <trkpt lat="43.38122" lon="-1.64041">
        <ele>18</ele>
        <time>2026-03-06T20:11:38.000Z</time>
      </trkpt>
      <trkpt lat="43.38121" lon="-1.64028">
        <ele>19</ele>
        <time>2026-03-06T20:11:40.000Z</time>
      </trkpt>
      <trkpt lat="43.38099" lon="-1.63966">
        <ele>20</ele>
        <time>2026-03-06T20:11:49.000Z</time>
      </trkpt>
      <trkpt lat="43.38095" lon="-1.63907">
        <ele>23</ele>
        <time>2026-03-06T20:11:56.000Z</time>
      </trkpt>
      <trkpt lat="43.381" lon="-1.63861">
        <ele>26</ele>
        <time>2026-03-06T20:12:02.000Z</time>
      </trkpt>
      <trkpt lat="43.38109" lon="-1.63808">
        <ele>29</ele>
        <time>2026-03-06T20:12:09.000Z</time>
      </trkpt>
      <trkpt lat="43.38116" lon="-1.63785">
        <ele>31</ele>
        <time>2026-03-06T20:12:13.000Z</time>
      </trkpt>
      <trkpt lat="43.38122" lon="-1.63772">
        <ele>32</ele>
        <time>2026-03-06T20:12:15.000Z</time>
      </trkpt>
      <trkpt lat="43.38158" lon="-1.63712">
        <ele>38</ele>
        <time>2026-03-06T20:12:25.000Z</time>
      </trkpt>
      <trkpt lat="43.38158" lon="-1.63712">
        <ele>38</ele>
        <time>2026-03-06T20:12:25.000Z</time>
      </trkpt>
      <trkpt lat="43.38122" lon="-1.63772">
        <ele>32</ele>
        <time>2026-03-06T20:12:35.000Z</time>
      </trkpt>
      <trkpt lat="43.38116" lon="-1.63785">
        <ele>31</ele>
        <time>2026-03-06T20:12:37.000Z</time>
      </trkpt>
      <trkpt lat="43.38109" lon="-1.63808">
        <ele>29</ele>
        <time>2026-03-06T20:12:40.000Z</time>
      </trkpt>
      <trkpt lat="43.381" lon="-1.63861">
        <ele>26</ele>
        <time>2026-03-06T20:12:47.000Z</time>
      </trkpt>
      <trkpt lat="43.38095" lon="-1.63907">
        <ele>23</ele>
        <time>2026-03-06T20:12:53.000Z</time>
      </trkpt>
      <trkpt lat="43.38099" lon="-1.63966">
        <ele>20</ele>
        <time>2026-03-06T20:13:01.000Z</time>
      </trkpt>
      <trkpt lat="43.38121" lon="-1.64028">
        <ele>19</ele>
        <time>2026-03-06T20:13:10.000Z</time>
      </trkpt>
      <trkpt lat="43.38122" lon="-1.64041">
        <ele>18</ele>
        <time>2026-03-06T20:13:11.000Z</time>
      </trkpt>
      <trkpt lat="43.38117" lon="-1.64144">
        <ele>9</ele>
        <time>2026-03-06T20:13:25.000Z</time>
      </trkpt>
      <trkpt lat="43.38121" lon="-1.64165">
        <ele>8</ele>
        <time>2026-03-06T20:13:27.000Z</time>
      </trkpt>
      <trkpt lat="43.38132" lon="-1.64193">
        <ele>7</ele>
        <time>2026-03-06T20:13:32.000Z</time>
      </trkpt>
      <trkpt lat="43.38158" lon="-1.6421">
        <ele>7</ele>
        <time>2026-03-06T20:13:37.000Z</time>
      </trkpt>
      <trkpt lat="43.38155" lon="-1.6423">
        <ele>6</ele>
        <time>2026-03-06T20:13:39.000Z</time>
      </trkpt>
      <trkpt lat="43.38212" lon="-1.64283">
        <ele>5</ele>
        <time>2026-03-06T20:13:52.000Z</time>
      </trkpt>
      <trkpt lat="43.38232" lon="-1.64309">
        <ele>5</ele>
        <time>2026-03-06T20:13:57.000Z</time>
      </trkpt>
      <trkpt lat="43.3825" lon="-1.64341">
        <ele>5</ele>
        <time>2026-03-06T20:14:02.000Z</time>
      </trkpt>
      <trkpt lat="43.38264" lon="-1.64383">
        <ele>7</ele>
        <time>2026-03-06T20:14:08.000Z</time>
      </trkpt>
      <trkpt lat="43.38272" lon="-1.64424">
        <ele>8</ele>
        <time>2026-03-06T20:14:13.000Z</time>
      </trkpt>
      <trkpt lat="43.38278" lon="-1.64507">
        <ele>10</ele>
        <time>2026-03-06T20:14:24.000Z</time>
      </trkpt>
      <trkpt lat="43.38279" lon="-1.6461">
        <ele>7</ele>
        <time>2026-03-06T20:14:37.000Z</time>
      </trkpt>
      <trkpt lat="43.38253" lon="-1.64877">
        <ele>9</ele>
        <time>2026-03-06T20:15:12.000Z</time>
      </trkpt>
      <trkpt lat="43.3825" lon="-1.64928">
        <ele>8</ele>
        <time>2026-03-06T20:15:19.000Z</time>
      </trkpt>
      <trkpt lat="43.38258" lon="-1.64969">
        <ele>8</ele>
        <time>2026-03-06T20:15:24.000Z</time>
      </trkpt>
      <trkpt lat="43.3833" lon="-1.6517">
        <ele>12</ele>
        <time>2026-03-06T20:15:53.000Z</time>
      </trkpt>
      <trkpt lat="43.38344" lon="-1.65206">
        <ele>12</ele>
        <time>2026-03-06T20:15:59.000Z</time>
      </trkpt>
      <trkpt lat="43.38356" lon="-1.65227">
        <ele>13</ele>
        <time>2026-03-06T20:16:02.000Z</time>
      </trkpt>
      <trkpt lat="43.38379" lon="-1.65254">
        <ele>14</ele>
        <time>2026-03-06T20:16:07.000Z</time>
      </trkpt>
      <trkpt lat="43.384" lon="-1.6527">
        <ele>14</ele>
        <time>2026-03-06T20:16:12.000Z</time>
      </trkpt>
      <trkpt lat="43.38412" lon="-1.65283">
        <ele>13</ele>
        <time>2026-03-06T20:16:14.000Z</time>
      </trkpt>
      <trkpt lat="43.38412" lon="-1.65302">
        <ele>10</ele>
        <time>2026-03-06T20:16:17.000Z</time>
      </trkpt>
      <trkpt lat="43.38409" lon="-1.65317">
        <ele>8</ele>
        <time>2026-03-06T20:16:19.000Z</time>
      </trkpt>
      <trkpt lat="43.38403" lon="-1.65325">
        <ele>7</ele>
        <time>2026-03-06T20:16:20.000Z</time>
      </trkpt>
      <trkpt lat="43.38339" lon="-1.65457">
        <ele>4</ele>
        <time>2026-03-06T20:16:41.000Z</time>
      </trkpt>
      <trkpt lat="43.38363" lon="-1.65494">
        <ele>4</ele>
        <time>2026-03-06T20:16:47.000Z</time>
      </trkpt>
      <trkpt lat="43.38362" lon="-1.65503">
        <ele>4</ele>
        <time>2026-03-06T20:16:48.000Z</time>
      </trkpt>
      <trkpt lat="43.38236" lon="-1.65679">
        <ele>4</ele>
        <time>2026-03-06T20:17:20.000Z</time>
      </trkpt>
      <trkpt lat="43.38233" lon="-1.65699">
        <ele>4</ele>
        <time>2026-03-06T20:17:23.000Z</time>
      </trkpt>
      <trkpt lat="43.38298" lon="-1.65877">
        <ele>4</ele>
        <time>2026-03-06T20:17:49.000Z</time>
      </trkpt>
      <trkpt lat="43.38313" lon="-1.6591">
        <ele>5</ele>
        <time>2026-03-06T20:17:54.000Z</time>
      </trkpt>
      <trkpt lat="43.38335" lon="-1.65933">
        <ele>6</ele>
        <time>2026-03-06T20:17:59.000Z</time>
      </trkpt>
      <trkpt lat="43.38347" lon="-1.65961">
        <ele>6</ele>
        <time>2026-03-06T20:18:03.000Z</time>
      </trkpt>
      <trkpt lat="43.38445" lon="-1.66095">
        <ele>5</ele>
        <time>2026-03-06T20:18:27.000Z</time>
      </trkpt>
      <trkpt lat="43.38462" lon="-1.66121">
        <ele>5</ele>
        <time>2026-03-06T20:18:32.000Z</time>
      </trkpt>
      <trkpt lat="43.38479" lon="-1.66155">
        <ele>5</ele>
        <time>2026-03-06T20:18:37.000Z</time>
      </trkpt>
      <trkpt lat="43.38485" lon="-1.66152">
        <ele>5</ele>
        <time>2026-03-06T20:18:38.000Z</time>
      </trkpt>
      <trkpt lat="43.38491" lon="-1.66155">
        <ele>5</ele>
        <time>2026-03-06T20:18:40.000Z</time>
      </trkpt>
      <trkpt lat="43.38493" lon="-1.6616">
        <ele>5</ele>
        <time>2026-03-06T20:18:40.000Z</time>
      </trkpt>
      <trkpt lat="43.38493" lon="-1.66166">
        <ele>5</ele>
        <time>2026-03-06T20:18:41.000Z</time>
      </trkpt>
      <trkpt lat="43.38491" lon="-1.66171">
        <ele>5</ele>
        <time>2026-03-06T20:18:42.000Z</time>
      </trkpt>
      <trkpt lat="43.38487" lon="-1.66173">
        <ele>5</ele>
        <time>2026-03-06T20:18:43.000Z</time>
      </trkpt>
      <trkpt lat="43.38493" lon="-1.66191">
        <ele>5</ele>
        <time>2026-03-06T20:18:45.000Z</time>
      </trkpt>
      <trkpt lat="43.38503" lon="-1.66208">
        <ele>4</ele>
        <time>2026-03-06T20:18:48.000Z</time>
      </trkpt>
      <trkpt lat="43.38616" lon="-1.66309">
        <ele>1</ele>
        <time>2026-03-06T20:19:12.000Z</time>
      </trkpt>
      <trkpt lat="43.38636" lon="-1.66319">
        <ele>3.9</ele>
        <time>2026-03-06T20:19:16.000Z</time>
      </trkpt>
      <trkpt lat="43.38667" lon="-1.66322">
        <ele>1</ele>
        <time>2026-03-06T20:19:21.000Z</time>
      </trkpt>
      <trkpt lat="43.38667" lon="-1.66317">
        <ele>1</ele>
        <time>2026-03-06T20:19:22.000Z</time>
      </trkpt>
      <trkpt lat="43.38655" lon="-1.66312">
        <ele>1</ele>
        <time>2026-03-06T20:19:24.000Z</time>
      </trkpt>
    </trkseg>
  </trk>
</gpx>